Time,TemperatureF,DewpointF,PressureIn,WindDirection,WindDirectionDegrees,WindSpeedMPH,WindSpeedGustMPH,Humidity,HourlyPrecipIn,Conditions,Clouds,dailyrainin,SoftwareType,DateUTC
2013-09-15 00:00:00,47.4,41.5,30.15,SSE,162,5.8,5.8,80,0.00,CLR,,0.00,WeatherDisplay:10.37,2013-09-15 04:00:00,
2013-09-15 00:01:00,47.4,41.5,30.15,SSE,162,5.8,5.8,80,0.00,CLR,,0.00,WeatherDisplay:10.37,2013-09-15 04:01:00,
2013-09-15 00:02:00,47.4,41.5,30.15,SSE,162,5.8,5.8,80,0.00,CLR,,0.00,WeatherDisplay:10.37,2013-09-15 04:02:00,
2013-09-15 00:03:00,47.4,41.5,30.15,SSE,154,6.0,6.0,80,0.00,CLR,,0.00,WeatherDisplay:10.37,2013-09-15 04:03:00,
2013-09-15 00:06:00,47.4,41.5,30.15,SSE,154,5.8,5.8,80,0.00,CLR,,0.00,WeatherDisplay:10.37,2013-09-15 04:06:00,
2013-09-15 00:07:00,47.4,41.5,30.15,SSE,155,3.5,3.5,80,0.00,CLR,,0.00,WeatherDisplay:10.37,2013-09-15 04:07:00,
2013-09-15 00:08:00,47.4,41.5,30.15,SSE,154,2.0,2.0,80,0.00,CLR,,0.00,WeatherDisplay:10.37,2013-09-15 04:08:00,
2013-09-15 00:11:00,47.4,41.5,30.15,SSE,154,4.6,4.6,80,0.00,CLR,,0.00,WeatherDisplay:10.37,2013-09-15 04:11:00,
2013-09-15 00:12:00,47.4,41.5,30.15,SSE,157,5.8,5.8,80,0.00,CLR,,0.00,WeatherDisplay:10.37,2013-09-15 04:12:00,
2013-09-15 00:15:00,47.4,41.5,30.14,SSE,161,6.9,6.9,80,0.00,CLR,,0.00,WeatherDisplay:10.37,2013-09-15 04:15:00,
2013-09-15 00:16:00,47.4,41.5,30.14,SSE,167,5.8,5.8,80,0.00,CLR,,0.00,WeatherDisplay:10.37,2013-09-15 04:16:00,
2013-09-15 00:17:00,47.4,41.5,30.14,SSE,164,5.8,5.8,80,0.00,CLR,,0.00,WeatherDisplay:10.37,2013-09-15 04:17:00,
2013-09-15 00:20:00,47.4,41.5,30.14,SSE,165,0.0,0.0,80,0.00,CLR,,0.00,WeatherDisplay:10.37,2013-09-15 04:20:00,
2013-09-15 00:21:00,47.4,41.5,30.14,SSE,165,0.0,0.0,80,0.00,CLR,,0.00,WeatherDisplay:10.37,2013-09-15 04:21:00,
2013-09-15 00:22:00,47.4,41.5,30.14,SSE,165,0.0,0.0,80,0.00,CLR,,0.00,WeatherDisplay:10.37,2013-09-15 04:22:00,
2013-09-15 00:23:00,47.4,41.5,30.14,SSE,165,0.0,0.0,80,0.00,CLR,,0.00,WeatherDisplay:10.37,2013-09-15 04:23:00,
2013-09-15 00:25:00,47.3,41.4,30.14,SSE,164,6.9,6.9,80,0.00,CLR,,0.00,WeatherDisplay:10.37,2013-09-15 04:25:00,
2013-09-15 00:26:00,47.3,41.4,30.14,SSE,160,4.6,4.6,80,0.00,CLR,,0.00,WeatherDisplay:10.37,2013-09-15 04:26:00,
2013-09-15 00:27:00,47.3,41.4,30.14,SSE,160,5.8,5.8,80,0.00,CLR,,0.00,WeatherDisplay:10.37,2013-09-15 04:27:00,
2013-09-15 00:28:00,47.3,41.4,30.14,SSE,158,5.8,5.8,80,0.00,CLR,,0.00,WeatherDisplay:10.37,2013-09-15 04:28:00,
2013-09-15 00:31:00,47.4,41.2,30.14,SSE,154,3.5,3.5,79,0.00,CLR,,0.00,WeatherDisplay:10.37,2013-09-15 04:31:00,
2013-09-15 00:32:00,47.4,41.2,30.14,SSE,154,3.5,3.5,79,0.00,CLR,,0.00,WeatherDisplay:10.37,2013-09-15 04:32:00,
2013-09-15 00:33:00,47.3,41.1,30.14,SSE,154,0.0,0.0,79,0.00,CLR,,0.00,WeatherDisplay:10.37,2013-09-15 04:33:00,
2013-09-15 00:34:00,47.3,41.4,30.14,SSE,155,0.0,0.0,80,0.00,CLR,,0.00,WeatherDisplay:10.37,2013-09-15 04:34:00,
2013-09-15 00:36:00,47.3,41.4,30.14,SSE,158,5.8,5.8,80,0.00,CLR,,0.00,WeatherDisplay:10.37,2013-09-15 04:36:00,
2013-09-15 00:37:00,47.3,41.4,30.14,SSE,158,5.0,5.0,80,0.00,CLR,,0.00,WeatherDisplay:10.37,2013-09-15 04:37:00,
2013-09-15 00:39:00,47.3,41.4,30.14,SSE,158,3.5,3.5,80,0.00,CLR,,0.00,WeatherDisplay:10.37,2013-09-15 04:39:00,
2013-09-15 00:40:00,47.3,41.4,30.14,SSE,160,4.6,4.6,80,0.00,CLR,,0.00,WeatherDisplay:10.37,2013-09-15 04:40:00,
2013-09-15 00:41:00,47.3,41.4,30.14,SSE,160,4.6,4.6,80,0.00,CLR,,0.00,WeatherDisplay:10.37,2013-09-15 04:41:00,
2013-09-15 00:42:00,47.3,41.4,30.14,SSE,160,5.8,5.8,80,0.00,CLR,,0.00,WeatherDisplay:10.37,2013-09-15 04:42:00,
2013-09-15 00:43:00,47.3,41.4,30.14,SSE,160,5.8,5.8,80,0.00,CLR,,0.00,WeatherDisplay:10.37,2013-09-15 04:43:00,
2013-09-15 00:44:00,47.3,41.4,30.14,SSE,160,4.6,4.6,80,0.00,CLR,,0.00,WeatherDisplay:10.37,2013-09-15 04:44:00,
2013-09-15 00:45:00,47.3,41.8,30.14,SSE,160,3.5,3.5,81,0.00,CLR,,0.00,WeatherDisplay:10.37,2013-09-15 04:45:00,
2013-09-15 00:47:00,47.3,41.8,30.14,SSE,160,3.5,3.5,81,0.00,CLR,,0.00,WeatherDisplay:10.37,2013-09-15 04:47:00,
2013-09-15 00:48:00,47.3,41.8,30.14,SSE,161,0.0,0.0,81,0.00,CLR,,0.00,WeatherDisplay:10.37,2013-09-15 04:48:00,
2013-09-15 00:50:00,47.3,41.8,30.14,SSE,161,5.0,5.0,81,0.00,CLR,,0.00,WeatherDisplay:10.37,2013-09-15 04:50:00,
2013-09-15 00:52:00,47.3,41.8,30.14,SSE,161,5.0,5.0,81,0.00,CLR,,0.00,WeatherDisplay:10.37,2013-09-15 04:52:00,
2013-09-15 00:54:00,47.3,41.8,30.14,SSE,157,4.0,4.0,81,0.00,CLR,,0.00,WeatherDisplay:10.37,2013-09-15 04:54:00,
2013-09-15 00:55:00,47.3,41.8,30.14,SSE,154,5.0,5.0,81,0.00,CLR,,0.00,WeatherDisplay:10.37,2013-09-15 04:55:00,
2013-09-15 00:57:00,47.3,41.8,30.14,SSE,160,4.6,4.6,81,0.00,CLR,,0.00,WeatherDisplay:10.37,2013-09-15 04:57:00,
2013-09-15 00:58:00,47.4,41.9,30.14,SSE,160,5.8,5.8,81,0.00,CLR,,0.00,WeatherDisplay:10.37,2013-09-15 04:58:00,
2013-09-15 00:59:00,47.4,41.9,30.14,SSE,160,5.8,5.8,81,0.00,CLR,,0.00,WeatherDisplay:10.37,2013-09-15 04:59:00,
2013-09-15 01:00:00,47.4,41.9,30.14,SSE,160,5.8,5.8,81,0.00,CLR,,0.00,WeatherDisplay:10.37,2013-09-15 05:00:00,
2013-09-15 01:01:00,47.4,41.9,30.14,SSE,160,5.0,5.0,81,0.00,CLR,,0.00,WeatherDisplay:10.37,2013-09-15 05:01:00,
2013-09-15 01:02:00,47.4,41.9,30.14,SSE,161,4.6,4.6,81,0.00,CLR,,0.00,WeatherDisplay:10.37,2013-09-15 05:02:00,
2013-09-15 01:03:00,47.4,41.9,30.14,South,179,6.9,6.9,81,0.00,CLR,,0.00,WeatherDisplay:10.37,2013-09-15 05:03:00,
2013-09-15 01:05:00,47.4,41.9,30.14,SSE,157,6.9,6.9,81,0.00,CLR,,0.00,WeatherDisplay:10.37,2013-09-15 05:05:00,
2013-09-15 01:06:00,47.4,41.9,30.14,SSE,157,5.8,5.8,81,0.00,CLR,,0.00,WeatherDisplay:10.37,2013-09-15 05:06:00,
2013-09-15 01:07:00,47.4,41.9,30.14,SSE,157,3.5,3.5,81,0.00,CLR,,0.00,WeatherDisplay:10.37,2013-09-15 05:07:00,
2013-09-15 01:08:00,47.4,41.9,30.14,SSE,162,3.5,3.5,81,0.00,CLR,,0.00,WeatherDisplay:10.37,2013-09-15 05:08:00,
2013-09-15 01:10:00,47.4,42.2,30.14,SSE,158,6.9,6.9,82,0.00,CLR,,0.00,WeatherDisplay:10.37,2013-09-15 05:10:00,
2013-09-15 01:12:00,47.4,41.9,30.14,SSE,151,6.0,6.0,81,0.00,CLR,,0.00,WeatherDisplay:10.37,2013-09-15 05:12:00,
2013-09-15 01:14:00,47.6,42.1,30.14,SSE,161,6.0,6.0,81,0.00,CLR,,0.00,WeatherDisplay:10.37,2013-09-15 05:14:00,
2013-09-15 01:15:00,47.6,42.1,30.13,SSE,160,6.0,6.0,81,0.00,CLR,,0.00,WeatherDisplay:10.37,2013-09-15 05:15:00,
2013-09-15 01:16:00,47.6,42.1,30.13,SSE,158,6.9,6.9,81,0.00,CLR,,0.00,WeatherDisplay:10.37,2013-09-15 05:16:00,
2013-09-15 01:17:00,47.6,42.1,30.14,SSE,168,6.9,6.9,81,0.00,CLR,,0.00,WeatherDisplay:10.37,2013-09-15 05:17:00,
2013-09-15 01:19:00,47.6,42.1,30.14,SSE,158,5.8,5.8,81,0.00,CLR,,0.00,WeatherDisplay:10.37,2013-09-15 05:19:00,
2013-09-15 01:20:00,47.7,42.2,30.14,SSE,150,5.8,5.8,81,0.00,CLR,,0.00,WeatherDisplay:10.37,2013-09-15 05:20:00,
2013-09-15 01:21:00,47.7,42.2,30.14,SE,133,5.8,5.8,81,0.00,CLR,,0.00,WeatherDisplay:10.37,2013-09-15 05:21:00,
2013-09-15 01:22:00,47.7,42.2,30.14,SE,141,8.1,8.1,81,0.00,CLR,,0.00,WeatherDisplay:10.37,2013-09-15 05:22:00,
2013-09-15 01:23:00,47.7,42.2,30.14,SSE,151,8.1,8.1,81,0.00,CLR,,0.00,WeatherDisplay:10.37,2013-09-15 05:23:00,
2013-09-15 01:25:00,47.7,42.2,30.14,SSE,164,5.8,5.8,81,0.00,CLR,,0.00,WeatherDisplay:10.37,2013-09-15 05:25:00,
2013-09-15 01:26:00,47.9,42.3,30.14,SSE,157,5.8,5.8,81,0.00,CLR,,0.00,WeatherDisplay:10.37,2013-09-15 05:26:00,
2013-09-15 01:27:00,47.9,42.3,30.14,SSE,157,5.8,5.8,81,0.00,CLR,,0.00,WeatherDisplay:10.37,2013-09-15 05:27:00,
2013-09-15 01:28:00,47.9,42.3,30.14,South,172,7.0,7.0,81,0.00,CLR,,0.00,WeatherDisplay:10.37,2013-09-15 05:28:00,
2013-09-15 01:30:00,47.9,42.3,30.14,SSE,150,8.1,8.1,81,0.00,CLR,,0.00,WeatherDisplay:10.37,2013-09-15 05:30:00,
2013-09-15 01:31:00,47.9,42.3,30.14,SSE,152,8.1,8.1,81,0.00,CLR,,0.00,WeatherDisplay:10.37,2013-09-15 05:31:00,
2013-09-15 01:33:00,47.7,42.2,30.14,SSE,154,5.8,5.8,81,0.00,CLR,,0.00,WeatherDisplay:10.37,2013-09-15 05:33:00,
2013-09-15 01:34:00,47.7,42.5,30.14,SSE,151,8.0,8.0,82,0.00,CLR,,0.00,WeatherDisplay:10.37,2013-09-15 05:34:00,
2013-09-15 01:35:00,47.7,42.5,30.14,SSE,155,8.1,8.1,82,0.00,CLR,,0.00,WeatherDisplay:10.37,2013-09-15 05:35:00,
2013-09-15 01:36:00,47.7,42.5,30.14,SSE,151,8.1,8.1,82,0.00,CLR,,0.00,WeatherDisplay:10.37,2013-09-15 05:36:00,
2013-09-15 01:37:00,47.7,42.5,30.14,SSE,160,5.8,5.8,82,0.00,CLR,,0.00,WeatherDisplay:10.37,2013-09-15 05:37:00,
2013-09-15 01:38:00,47.7,42.5,30.14,SSE,161,5.8,5.8,82,0.00,CLR,,0.00,WeatherDisplay:10.37,2013-09-15 05:38:00,
2013-09-15 01:39:00,47.7,42.8,30.14,SSE,168,6.9,6.9,83,0.00,CLR,,0.00,WeatherDisplay:10.37,2013-09-15 05:39:00,
2013-09-15 01:40:00,47.6,42.7,30.14,SSE,161,6.9,6.9,83,0.00,CLR,,0.00,WeatherDisplay:10.37,2013-09-15 05:40:00,
2013-09-15 01:41:00,47.6,42.7,30.14,SSE,162,5.8,5.8,83,0.00,CLR,,0.00,WeatherDisplay:10.37,2013-09-15 05:41:00,
2013-09-15 01:43:00,47.6,42.7,30.14,SSE,157,4.6,4.6,83,0.00,CLR,,0.00,WeatherDisplay:10.37,2013-09-15 05:43:00,
2013-09-15 01:44:00,47.6,42.7,30.14,SSE,147,9.2,9.2,83,0.00,CLR,,0.00,WeatherDisplay:10.37,2013-09-15 05:44:00,
2013-09-15 01:45:00,47.6,42.7,30.14,SSE,157,8.1,8.1,83,0.00,CLR,,0.00,WeatherDisplay:10.37,2013-09-15 05:45:00,
2013-09-15 01:46:00,47.6,42.7,30.14,SSE,157,6.9,6.9,83,0.00,CLR,,0.00,WeatherDisplay:10.37,2013-09-15 05:46:00,
2013-09-15 01:48:00,47.6,42.7,30.14,SSE,158,6.9,6.9,83,0.00,CLR,,0.00,WeatherDisplay:10.37,2013-09-15 05:48:00,
2013-09-15 01:49:00,47.7,42.8,30.14,SSE,152,6.9,6.9,83,0.00,CLR,,0.00,WeatherDisplay:10.37,2013-09-15 05:49:00,
2013-09-15 01:50:00,47.7,42.8,30.14,SSE,158,6.9,6.9,83,0.00,CLR,,0.00,WeatherDisplay:10.37,2013-09-15 05:50:00,
2013-09-15 01:51:00,47.7,42.8,30.14,SSE,150,6.9,6.9,83,0.00,CLR,,0.00,WeatherDisplay:10.37,2013-09-15 05:51:00,
2013-09-15 01:53:00,47.7,42.8,30.14,SSE,160,6.0,6.0,83,0.00,CLR,,0.00,WeatherDisplay:10.37,2013-09-15 05:53:00,
2013-09-15 01:54:00,47.7,42.8,30.14,SSE,161,6.9,6.9,83,0.00,CLR,,0.00,WeatherDisplay:10.37,2013-09-15 05:54:00,
2013-09-15 01:55:00,47.7,42.8,30.14,SSE,160,6.9,6.9,83,0.00,CLR,,0.00,WeatherDisplay:10.37,2013-09-15 05:55:00,
2013-09-15 01:56:00,47.7,42.8,30.14,SSE,150,6.9,6.9,83,0.00,CLR,,0.00,WeatherDisplay:10.37,2013-09-15 05:56:00,
2013-09-15 01:58:00,47.7,43.1,30.14,SSE,148,7.0,7.0,84,0.00,CLR,,0.00,WeatherDisplay:10.37,2013-09-15 05:58:00,
2013-09-15 02:00:00,47.7,43.1,30.14,SSE,150,5.8,5.8,84,0.00,CLR,,0.00,WeatherDisplay:10.37,2013-09-15 06:00:00,
2013-09-15 02:01:00,47.7,43.1,30.14,SSE,154,5.8,5.8,84,0.00,CLR,,0.00,WeatherDisplay:10.37,2013-09-15 06:01:00,
2013-09-15 02:03:00,47.7,43.1,30.14,SSE,155,6.9,6.9,84,0.00,CLR,,0.00,WeatherDisplay:10.37,2013-09-15 06:03:00,
2013-09-15 02:06:00,47.6,43.0,30.14,SE,143,8.1,8.1,84,0.00,CLR,,0.00,WeatherDisplay:10.37,2013-09-15 06:06:00,
2013-09-15 02:07:00,47.6,43.3,30.14,SSE,151,8.1,8.1,85,0.00,CLR,,0.00,WeatherDisplay:10.37,2013-09-15 06:07:00,
2013-09-15 02:08:00,47.6,43.3,30.14,SSE,161,5.8,5.8,85,0.00,CLR,,0.00,WeatherDisplay:10.37,2013-09-15 06:08:00,
2013-09-15 02:11:00,47.6,43.3,30.14,SSE,147,6.9,6.9,85,0.00,CLR,,0.00,WeatherDisplay:10.37,2013-09-15 06:11:00,
2013-09-15 02:12:00,47.6,43.3,30.14,SE,141,8.0,8.0,85,0.00,CLR,,0.00,WeatherDisplay:10.37,2013-09-15 06:12:00,
2013-09-15 02:13:00,47.6,43.3,30.14,SSE,164,8.1,8.1,85,0.00,CLR,,0.00,WeatherDisplay:10.37,2013-09-15 06:13:00,
2013-09-15 02:16:00,47.4,43.4,30.14,SSE,150,6.9,6.9,86,0.00,CLR,,0.00,WeatherDisplay:10.37,2013-09-15 06:16:00,
2013-09-15 02:17:00,47.4,43.4,30.14,SSE,151,8.1,8.1,86,0.00,CLR,,0.00,WeatherDisplay:10.37,2013-09-15 06:17:00,
2013-09-15 02:18:00,47.4,43.4,30.14,SSE,154,9.2,9.2,86,0.00,CLR,,0.00,WeatherDisplay:10.37,2013-09-15 06:18:00,
2013-09-15 02:20:00,47.4,43.4,30.14,SSE,157,10.4,10.4,86,0.00,CLR,,0.00,WeatherDisplay:10.37,2013-09-15 06:20:00,
2013-09-15 02:21:00,47.4,43.4,30.14,SE,140,8.0,8.0,86,0.00,CLR,,0.00,WeatherDisplay:10.37,2013-09-15 06:21:00,
2013-09-15 02:22:00,47.3,43.3,30.14,SE,141,8.1,8.1,86,0.00,CLR,,0.00,WeatherDisplay:10.37,2013-09-15 06:22:00,
2013-09-15 02:23:00,47.3,43.3,30.14,SSE,155,11.5,11.5,86,0.00,CLR,,0.00,WeatherDisplay:10.37,2013-09-15 06:23:00,
2013-09-15 02:24:00,47.3,43.3,30.14,SSE,161,8.1,8.1,86,0.00,CLR,,0.00,WeatherDisplay:10.37,2013-09-15 06:24:00,
2013-09-15 02:26:00,47.3,43.3,30.14,SE,138,6.9,6.9,86,0.00,CLR,,0.00,WeatherDisplay:10.37,2013-09-15 06:26:00,
2013-09-15 02:27:00,47.1,43.1,30.13,SSE,165,8.1,8.1,86,0.00,CLR,,0.00,WeatherDisplay:10.37,2013-09-15 06:27:00,
2013-09-15 02:28:00,47.1,43.1,30.14,SSE,162,9.2,9.2,86,0.00,CLR,,0.00,WeatherDisplay:10.37,2013-09-15 06:28:00,
2013-09-15 02:29:00,47.1,43.1,30.14,SSE,165,10.4,10.4,86,0.00,CLR,,0.00,WeatherDisplay:10.37,2013-09-15 06:29:00,
2013-09-15 02:32:00,47.1,43.4,30.13,SE,145,7.0,7.0,87,0.00,CLR,,0.00,WeatherDisplay:10.37,2013-09-15 06:32:00,
2013-09-15 02:33:00,47.1,43.4,30.13,SSE,157,8.1,8.1,87,0.00,CLR,,0.00,WeatherDisplay:10.37,2013-09-15 06:33:00,
2013-09-15 02:34:00,47.1,43.4,30.13,SSE,158,8.1,8.1,87,0.00,CLR,,0.00,WeatherDisplay:10.37,2013-09-15 06:34:00,
2013-09-15 02:35:00,47.1,43.4,30.13,SSE,157,8.1,8.1,87,0.00,CLR,,0.00,WeatherDisplay:10.37,2013-09-15 06:35:00,
2013-09-15 02:37:00,47.0,43.3,30.13,SSE,151,6.9,6.9,87,0.00,CLR,,0.00,WeatherDisplay:10.37,2013-09-15 06:37:00,
2013-09-15 02:38:00,47.0,43.3,30.13,SSE,151,6.9,6.9,87,0.00,CLR,,0.00,WeatherDisplay:10.37,2013-09-15 06:38:00,
2013-09-15 02:39:00,47.0,43.3,30.13,SE,145,10.0,10.0,87,0.00,CLR,,0.00,WeatherDisplay:10.37,2013-09-15 06:39:00,
2013-09-15 02:41:00,47.1,43.4,30.13,SSE,147,11.5,11.5,87,0.00,CLR,,0.00,WeatherDisplay:10.37,2013-09-15 06:41:00,
2013-09-15 02:42:00,47.1,43.1,30.13,SSE,151,8.1,8.1,86,0.00,CLR,,0.00,WeatherDisplay:10.37,2013-09-15 06:42:00,
2013-09-15 02:43:00,47.1,43.1,30.13,SSE,151,8.1,8.1,86,0.00,CLR,,0.00,WeatherDisplay:10.37,2013-09-15 06:43:00,
2013-09-15 02:44:00,47.0,43.0,30.13,SSE,147,8.1,8.1,86,0.00,CLR,,0.00,WeatherDisplay:10.37,2013-09-15 06:44:00,
2013-09-15 02:47:00,47.1,43.1,30.13,SSE,158,10.4,10.4,86,0.00,CLR,,0.00,WeatherDisplay:10.37,2013-09-15 06:47:00,
2013-09-15 02:48:00,47.0,43.0,30.13,SSE,148,10.4,10.4,86,0.00,CLR,,0.00,WeatherDisplay:10.37,2013-09-15 06:48:00,
2013-09-15 02:49:00,47.0,43.0,30.13,SSE,150,9.0,9.0,86,0.00,CLR,,0.00,WeatherDisplay:10.37,2013-09-15 06:49:00,
2013-09-15 02:50:00,47.0,43.3,30.12,SSW,193,8.1,8.1,87,0.00,CLR,,0.00,WeatherDisplay:10.37,2013-09-15 06:50:00,
2013-09-15 02:52:00,47.0,43.0,30.12,SSE,147,9.2,9.2,86,0.00,CLR,,0.00,WeatherDisplay:10.37,2013-09-15 06:52:00,
2013-09-15 02:53:00,47.0,43.0,30.12,SE,136,10.4,10.4,86,0.00,CLR,,0.00,WeatherDisplay:10.37,2013-09-15 06:53:00,
2013-09-15 02:54:00,47.0,43.3,30.12,SE,134,10.4,10.4,87,0.00,CLR,,0.00,WeatherDisplay:10.37,2013-09-15 06:54:00,
2013-09-15 02:55:00,47.0,43.0,30.12,South,172,8.1,8.1,86,0.00,CLR,,0.00,WeatherDisplay:10.37,2013-09-15 06:55:00,
2013-09-15 02:57:00,47.0,43.0,30.12,SSE,152,8.1,8.1,86,0.00,CLR,,0.00,WeatherDisplay:10.37,2013-09-15 06:57:00,
2013-09-15 02:58:00,47.0,43.0,30.12,South,178,8.1,8.1,86,0.00,CLR,,0.00,WeatherDisplay:10.37,2013-09-15 06:58:00,
2013-09-15 02:59:00,47.0,43.0,30.12,SE,138,10.4,10.4,86,0.00,CLR,,0.00,WeatherDisplay:10.37,2013-09-15 06:59:00,
2013-09-15 03:01:00,47.0,43.3,30.13,SSE,160,10.4,10.4,87,0.00,CLR,,0.00,WeatherDisplay:10.37,2013-09-15 07:01:00,
2013-09-15 03:02:00,47.0,43.3,30.12,SSE,162,8.0,8.0,87,0.00,CLR,,0.00,WeatherDisplay:10.37,2013-09-15 07:02:00,
2013-09-15 03:03:00,47.0,43.0,30.12,SSE,147,8.1,8.1,86,0.00,CLR,,0.00,WeatherDisplay:10.37,2013-09-15 07:03:00,
2013-09-15 03:04:00,47.0,43.0,30.12,SE,144,10.4,10.4,86,0.00,CLR,,0.00,WeatherDisplay:10.37,2013-09-15 07:04:00,
2013-09-15 03:06:00,47.0,43.3,30.12,SSE,160,9.0,9.0,87,0.00,CLR,,0.00,WeatherDisplay:10.37,2013-09-15 07:06:00,
2013-09-15 03:07:00,46.8,43.1,30.12,SSE,165,11.5,11.5,87,0.00,CLR,,0.00,WeatherDisplay:10.37,2013-09-15 07:07:00,
2013-09-15 03:08:00,46.8,43.1,30.12,SSE,160,10.4,10.4,87,0.00,CLR,,0.00,WeatherDisplay:10.37,2013-09-15 07:08:00,
2013-09-15 03:09:00,46.8,43.1,30.13,SSE,168,6.9,6.9,87,0.00,CLR,,0.00,WeatherDisplay:10.37,2013-09-15 07:09:00,
2013-09-15 03:12:00,46.8,43.1,30.13,SSE,158,8.1,8.1,87,0.00,CLR,,0.00,WeatherDisplay:10.37,2013-09-15 07:12:00,
2013-09-15 03:13:00,46.8,43.1,30.12,South,169,10.4,10.4,87,0.00,CLR,,0.00,WeatherDisplay:10.37,2013-09-15 07:13:00,
2013-09-15 03:14:00,46.8,43.1,30.12,SSE,152,9.2,9.2,87,0.00,CLR,,0.00,WeatherDisplay:10.37,2013-09-15 07:14:00,
2013-09-15 03:17:00,46.8,43.1,30.13,SSE,152,7.0,7.0,87,0.00,CLR,,0.00,WeatherDisplay:10.37,2013-09-15 07:17:00,
2013-09-15 03:18:00,46.8,43.1,30.13,SE,145,8.1,8.1,87,0.00,CLR,,0.00,WeatherDisplay:10.37,2013-09-15 07:18:00,
2013-09-15 03:19:00,46.8,43.1,30.12,SSE,151,8.1,8.1,87,0.00,CLR,,0.00,WeatherDisplay:10.37,2013-09-15 07:19:00,
2013-09-15 03:22:00,46.8,43.1,30.13,SSE,164,8.1,8.1,87,0.00,CLR,,0.00,WeatherDisplay:10.37,2013-09-15 07:22:00,
2013-09-15 03:23:00,46.8,43.1,30.13,SSE,165,8.1,8.1,87,0.00,CLR,,0.00,WeatherDisplay:10.37,2013-09-15 07:23:00,
2013-09-15 03:24:00,46.8,43.1,30.13,SSE,155,8.1,8.1,87,0.00,CLR,,0.00,WeatherDisplay:10.37,2013-09-15 07:24:00,
2013-09-15 03:28:00,46.8,43.1,30.13,South,169,8.1,8.1,87,0.00,CLR,,0.00,WeatherDisplay:10.37,2013-09-15 07:28:00,
2013-09-15 03:29:00,46.8,43.1,30.13,SSE,158,6.9,6.9,87,0.00,CLR,,0.00,WeatherDisplay:10.37,2013-09-15 07:29:00,
2013-09-15 03:30:00,46.8,43.1,30.13,SSE,150,8.1,8.1,87,0.00,CLR,,0.00,WeatherDisplay:10.37,2013-09-15 07:30:00,
2013-09-15 03:33:00,46.7,43.0,30.13,South,174,11.5,11.5,87,0.00,CLR,,0.00,WeatherDisplay:10.37,2013-09-15 07:33:00,
2013-09-15 03:34:00,46.7,43.0,30.13,SSE,154,6.9,6.9,87,0.00,CLR,,0.00,WeatherDisplay:10.37,2013-09-15 07:34:00,
2013-09-15 03:35:00,46.7,43.0,30.13,SSE,154,6.9,6.9,87,0.00,CLR,,0.00,WeatherDisplay:10.37,2013-09-15 07:35:00,
2013-09-15 03:36:00,46.7,43.0,30.13,SSE,162,8.1,8.1,87,0.00,CLR,,0.00,WeatherDisplay:10.37,2013-09-15 07:36:00,
2013-09-15 03:38:00,46.7,43.0,30.13,SSE,165,8.1,8.1,87,0.00,CLR,,0.00,WeatherDisplay:10.37,2013-09-15 07:38:00,
2013-09-15 03:40:00,46.7,43.0,30.13,SE,140,9.2,9.2,87,0.00,CLR,,0.00,WeatherDisplay:10.37,2013-09-15 07:40:00,
2013-09-15 03:41:00,46.7,43.0,30.13,SE,141,9.0,9.0,87,0.00,CLR,,0.00,WeatherDisplay:10.37,2013-09-15 07:41:00,
2013-09-15 03:43:00,46.7,43.0,30.13,SE,144,8.1,8.1,87,0.00,CLR,,0.00,WeatherDisplay:10.37,2013-09-15 07:43:00,
2013-09-15 03:45:00,46.7,43.0,30.13,SSE,161,8.1,8.1,87,0.00,CLR,,0.00,WeatherDisplay:10.37,2013-09-15 07:45:00,
2013-09-15 03:46:00,46.7,43.0,30.13,SSE,154,9.2,9.2,87,0.00,CLR,,0.00,WeatherDisplay:10.37,2013-09-15 07:46:00,
2013-09-15 03:49:00,46.7,43.0,30.13,SSE,155,10.4,10.4,87,0.00,CLR,,0.00,WeatherDisplay:10.37,2013-09-15 07:49:00,
2013-09-15 03:50:00,46.7,42.7,30.13,SSE,147,8.1,8.1,86,0.00,CLR,,0.00,WeatherDisplay:10.37,2013-09-15 07:50:00,
2013-09-15 03:51:00,46.7,42.7,30.13,SSE,161,8.1,8.1,86,0.00,CLR,,0.00,WeatherDisplay:10.37,2013-09-15 07:51:00,
2013-09-15 03:54:00,46.7,43.0,30.13,SSE,164,9.2,9.2,87,0.00,CLR,,0.00,WeatherDisplay:10.37,2013-09-15 07:54:00,
2013-09-15 03:55:00,46.7,43.0,30.13,SSE,147,11.5,11.5,87,0.00,CLR,,0.00,WeatherDisplay:10.37,2013-09-15 07:55:00,
2013-09-15 03:56:00,46.7,43.0,30.13,SSE,150,11.5,11.5,87,0.00,CLR,,0.00,WeatherDisplay:10.37,2013-09-15 07:56:00,
2013-09-15 03:59:00,46.7,42.7,30.13,SSE,150,8.1,8.1,86,0.00,CLR,,0.00,WeatherDisplay:10.37,2013-09-15 07:59:00,
2013-09-15 04:00:00,46.7,42.7,30.13,SSE,147,10.4,10.4,86,0.00,CLR,,0.00,WeatherDisplay:10.37,2013-09-15 08:00:00,
2013-09-15 04:01:00,46.7,42.7,30.13,SSE,152,10.4,10.4,86,0.00,CLR,,0.00,WeatherDisplay:10.37,2013-09-15 08:01:00,
2013-09-15 04:02:00,46.7,43.0,30.13,SE,143,10.4,10.4,87,0.00,CLR,,0.00,WeatherDisplay:10.37,2013-09-15 08:02:00,
2013-09-15 04:04:00,46.5,42.8,30.13,SE,145,10.4,10.4,87,0.00,CLR,,0.00,WeatherDisplay:10.37,2013-09-15 08:04:00,
2013-09-15 04:05:00,46.5,42.8,30.13,SSE,164,10.4,10.4,87,0.00,CLR,,0.00,WeatherDisplay:10.37,2013-09-15 08:05:00,
2013-09-15 04:06:00,46.5,42.8,30.13,SSE,151,9.2,9.2,87,0.00,CLR,,0.00,WeatherDisplay:10.37,2013-09-15 08:06:00,
2013-09-15 04:07:00,46.5,42.8,30.12,SSE,148,11.5,11.5,87,0.00,CLR,,0.00,WeatherDisplay:10.37,2013-09-15 08:07:00,
2013-09-15 04:08:00,46.5,42.8,30.12,SSE,157,9.2,9.2,87,0.00,CLR,,0.00,WeatherDisplay:10.37,2013-09-15 08:08:00,
2013-09-15 04:09:00,46.5,42.8,30.12,SE,140,11.5,11.5,87,0.00,CLR,,0.00,WeatherDisplay:10.37,2013-09-15 08:09:00,
2013-09-15 04:10:00,46.5,42.8,30.12,SSE,155,11.5,11.5,87,0.00,CLR,,0.00,WeatherDisplay:10.37,2013-09-15 08:10:00,
2013-09-15 04:12:00,46.5,42.8,30.12,SE,144,10.4,10.4,87,0.00,CLR,,0.00,WeatherDisplay:10.37,2013-09-15 08:12:00,
2013-09-15 04:13:00,46.5,42.8,30.12,SSE,161,10.4,10.4,87,0.00,CLR,,0.00,WeatherDisplay:10.37,2013-09-15 08:13:00,
2013-09-15 04:14:00,46.5,42.8,30.12,SSE,157,10.4,10.4,87,0.00,CLR,,0.00,WeatherDisplay:10.37,2013-09-15 08:14:00,
2013-09-15 04:15:00,46.5,42.8,30.12,SSE,152,6.9,6.9,87,0.00,CLR,,0.00,WeatherDisplay:10.37,2013-09-15 08:15:00,
2013-09-15 04:17:00,46.5,42.8,30.12,SSE,155,11.5,11.5,87,0.00,CLR,,0.00,WeatherDisplay:10.37,2013-09-15 08:17:00,
2013-09-15 04:18:00,46.5,42.8,30.12,SE,144,10.4,10.4,87,0.00,CLR,,0.00,WeatherDisplay:10.37,2013-09-15 08:18:00,
2013-09-15 04:19:00,46.7,43.0,30.12,SSE,157,8.1,8.1,87,0.00,CLR,,0.00,WeatherDisplay:10.37,2013-09-15 08:19:00,
2013-09-15 04:20:00,46.7,42.7,30.12,South,172,9.2,9.2,86,0.00,CLR,,0.00,WeatherDisplay:10.37,2013-09-15 08:20:00,
2013-09-15 04:21:00,46.7,42.7,30.13,SE,144,9.2,9.2,86,0.00,CLR,,0.00,WeatherDisplay:10.37,2013-09-15 08:21:00,
2013-09-15 04:22:00,46.8,42.8,30.13,SSE,164,11.5,11.5,86,0.00,CLR,,0.00,WeatherDisplay:10.37,2013-09-15 08:22:00,
2013-09-15 04:23:00,46.8,42.8,30.13,SSE,158,12.0,12.0,86,0.00,CLR,,0.00,WeatherDisplay:10.37,2013-09-15 08:23:00,
2013-09-15 04:25:00,46.8,42.8,30.13,SSE,167,8.1,8.1,86,0.00,CLR,,0.00,WeatherDisplay:10.37,2013-09-15 08:25:00,
2013-09-15 04:26:00,46.8,42.8,30.13,SE,144,6.9,6.9,86,0.00,CLR,,0.00,WeatherDisplay:10.37,2013-09-15 08:26:00,
2013-09-15 04:27:00,46.8,42.8,30.13,SE,141,10.4,10.4,86,0.00,CLR,,0.00,WeatherDisplay:10.37,2013-09-15 08:27:00,
2013-09-15 04:28:00,47.0,43.0,30.13,SE,136,8.1,8.1,86,0.00,CLR,,0.00,WeatherDisplay:10.37,2013-09-15 08:28:00,
2013-09-15 04:29:00,47.0,43.0,30.13,SSE,152,8.1,8.1,86,0.00,CLR,,0.00,WeatherDisplay:10.37,2013-09-15 08:29:00,
2013-09-15 04:30:00,47.0,43.0,30.13,SSE,147,8.1,8.1,86,0.00,CLR,,0.00,WeatherDisplay:10.37,2013-09-15 08:30:00,
2013-09-15 04:31:00,47.0,42.7,30.13,SSE,152,8.1,8.1,85,0.00,CLR,,0.00,WeatherDisplay:10.37,2013-09-15 08:31:00,
2013-09-15 04:32:00,47.0,42.7,30.13,South,171,6.9,6.9,85,0.00,CLR,,0.00,WeatherDisplay:10.37,2013-09-15 08:32:00,
2013-09-15 04:33:00,47.0,43.0,30.13,SSE,147,8.1,8.1,86,0.00,CLR,,0.00,WeatherDisplay:10.37,2013-09-15 08:33:00,
2013-09-15 04:34:00,47.0,43.0,30.13,SSE,158,8.1,8.1,86,0.00,CLR,,0.00,WeatherDisplay:10.37,2013-09-15 08:34:00,
2013-09-15 04:35:00,47.0,43.0,30.13,SE,144,8.1,8.1,86,0.00,CLR,,0.00,WeatherDisplay:10.37,2013-09-15 08:35:00,
2013-09-15 04:36:00,47.0,43.0,30.13,SSE,148,10.4,10.4,86,0.00,CLR,,0.00,WeatherDisplay:10.37,2013-09-15 08:36:00,
2013-09-15 04:38:00,47.0,42.7,30.13,SE,137,11.5,11.5,85,0.00,CLR,,0.00,WeatherDisplay:10.37,2013-09-15 08:38:00,
2013-09-15 04:40:00,46.8,42.5,30.13,SSE,161,10.4,10.4,85,0.00,CLR,,0.00,WeatherDisplay:10.37,2013-09-15 08:40:00,
2013-09-15 04:41:00,46.8,42.5,30.13,SSE,147,8.1,8.1,85,0.00,CLR,,0.00,WeatherDisplay:10.37,2013-09-15 08:41:00,
2013-09-15 04:43:00,46.8,42.5,30.13,SSE,162,6.9,6.9,85,0.00,CLR,,0.00,WeatherDisplay:10.37,2013-09-15 08:43:00,
2013-09-15 04:44:00,46.8,42.5,30.13,SE,145,8.1,8.1,85,0.00,CLR,,0.00,WeatherDisplay:10.37,2013-09-15 08:44:00,
2013-09-15 04:45:00,46.7,42.4,30.13,SSE,151,8.1,8.1,85,0.00,CLR,,0.00,WeatherDisplay:10.37,2013-09-15 08:45:00,
2013-09-15 04:46:00,46.7,42.4,30.13,SE,134,8.1,8.1,85,0.00,CLR,,0.00,WeatherDisplay:10.37,2013-09-15 08:46:00,
2013-09-15 04:48:00,46.7,42.4,30.13,SE,138,9.2,9.2,85,0.00,CLR,,0.00,WeatherDisplay:10.37,2013-09-15 08:48:00,
2013-09-15 04:49:00,46.5,42.2,30.13,SSE,155,8.1,8.1,85,0.00,CLR,,0.00,WeatherDisplay:10.37,2013-09-15 08:49:00,
2013-09-15 04:51:00,46.5,42.5,30.13,SSE,152,8.1,8.1,86,0.00,CLR,,0.00,WeatherDisplay:10.37,2013-09-15 08:51:00,
2013-09-15 04:53:00,46.5,42.5,30.13,SE,144,9.2,9.2,86,0.00,CLR,,0.00,WeatherDisplay:10.37,2013-09-15 08:53:00,
2013-09-15 04:54:00,46.5,42.5,30.13,SSE,147,8.1,8.1,86,0.00,CLR,,0.00,WeatherDisplay:10.37,2013-09-15 08:54:00,
2013-09-15 04:56:00,46.5,42.5,30.13,South,179,10.4,10.4,86,0.00,CLR,,0.00,WeatherDisplay:10.37,2013-09-15 08:56:00,
2013-09-15 04:57:00,46.5,42.5,30.13,SE,143,10.4,10.4,86,0.00,CLR,,0.00,WeatherDisplay:10.37,2013-09-15 08:57:00,
2013-09-15 04:59:00,46.5,42.2,30.13,SSE,150,10.4,10.4,85,0.00,CLR,,0.00,WeatherDisplay:10.37,2013-09-15 08:59:00,
2013-09-15 05:01:00,46.5,42.2,30.13,SE,143,6.9,6.9,85,0.00,CLR,,0.00,WeatherDisplay:10.37,2013-09-15 09:01:00,
2013-09-15 05:02:00,46.5,42.2,30.13,SE,136,7.0,7.0,85,0.00,CLR,,0.00,WeatherDisplay:10.37,2013-09-15 09:02:00,
2013-09-15 05:04:00,46.5,42.2,30.13,SE,143,11.5,11.5,85,0.00,CLR,,0.00,WeatherDisplay:10.37,2013-09-15 09:04:00,
2013-09-15 05:05:00,46.5,42.2,30.13,SSE,151,11.5,11.5,85,0.00,CLR,,0.00,WeatherDisplay:10.37,2013-09-15 09:05:00,
2013-09-15 05:06:00,46.7,42.4,30.13,SSE,148,10.4,10.4,85,0.00,CLR,,0.00,WeatherDisplay:10.37,2013-09-15 09:06:00,
2013-09-15 05:07:00,46.7,42.4,30.13,SSE,151,10.4,10.4,85,0.00,CLR,,0.00,WeatherDisplay:10.37,2013-09-15 09:07:00,
2013-09-15 05:09:00,46.7,42.4,30.13,SE,138,8.1,8.1,85,0.00,CLR,,0.00,WeatherDisplay:10.37,2013-09-15 09:09:00,
2013-09-15 05:10:00,46.7,42.4,30.13,SSE,164,8.1,8.1,85,0.00,CLR,,0.00,WeatherDisplay:10.37,2013-09-15 09:10:00,
2013-09-15 05:11:00,46.7,42.4,30.13,SE,145,8.1,8.1,85,0.00,CLR,,0.00,WeatherDisplay:10.37,2013-09-15 09:11:00,
2013-09-15 05:12:00,46.7,42.4,30.13,SE,140,8.1,8.1,85,0.00,CLR,,0.00,WeatherDisplay:10.37,2013-09-15 09:12:00,
2013-09-15 05:14:00,46.7,42.4,30.13,SSE,164,8.1,8.1,85,0.00,CLR,,0.00,WeatherDisplay:10.37,2013-09-15 09:14:00,
2013-09-15 05:15:00,46.7,42.1,30.13,SE,131,7.0,7.0,84,0.00,CLR,,0.00,WeatherDisplay:10.37,2013-09-15 09:15:00,
2013-09-15 05:16:00,46.7,42.1,30.13,SSE,150,8.1,8.1,84,0.00,CLR,,0.00,WeatherDisplay:10.37,2013-09-15 09:16:00,
2013-09-15 05:17:00,46.7,42.1,30.13,SSE,150,8.1,8.1,84,0.00,CLR,,0.00,WeatherDisplay:10.37,2013-09-15 09:17:00,
2013-09-15 05:19:00,46.8,42.2,30.13,SSE,150,8.1,8.1,84,0.00,CLR,,0.00,WeatherDisplay:10.37,2013-09-15 09:19:00,
2013-09-15 05:20:00,46.8,42.2,30.13,SE,143,6.9,6.9,84,0.00,CLR,,0.00,WeatherDisplay:10.37,2013-09-15 09:20:00,
2013-09-15 05:21:00,46.8,42.2,30.13,SSE,160,10.0,10.0,84,0.00,CLR,,0.00,WeatherDisplay:10.37,2013-09-15 09:21:00,
2013-09-15 05:22:00,46.8,42.2,30.13,SSE,154,10.4,10.4,84,0.00,CLR,,0.00,WeatherDisplay:10.37,2013-09-15 09:22:00,
2013-09-15 05:24:00,47.0,42.4,30.13,SSE,148,11.5,11.5,84,0.00,CLR,,0.00,WeatherDisplay:10.37,2013-09-15 09:24:00,
2013-09-15 05:25:00,47.0,42.4,30.13,SSE,160,8.1,8.1,84,0.00,CLR,,0.00,WeatherDisplay:10.37,2013-09-15 09:25:00,
2013-09-15 05:26:00,47.0,42.4,30.13,SSE,151,6.9,6.9,84,0.00,CLR,,0.00,WeatherDisplay:10.37,2013-09-15 09:26:00,
2013-09-15 05:27:00,47.0,42.1,30.13,SE,145,8.1,8.1,83,0.00,CLR,,0.00,WeatherDisplay:10.37,2013-09-15 09:27:00,
2013-09-15 05:30:00,47.1,42.2,30.13,SSE,150,6.9,6.9,83,0.00,CLR,,0.00,WeatherDisplay:10.37,2013-09-15 09:30:00,
2013-09-15 05:31:00,47.1,42.2,30.13,SE,145,7.0,7.0,83,0.00,CLR,,0.00,WeatherDisplay:10.37,2013-09-15 09:31:00,
2013-09-15 05:32:00,47.1,42.2,30.13,SSE,158,11.5,11.5,83,0.00,CLR,,0.00,WeatherDisplay:10.37,2013-09-15 09:32:00,
2013-09-15 05:35:00,47.3,42.4,30.14,SE,143,10.0,10.0,83,0.00,CLR,,0.00,WeatherDisplay:10.37,2013-09-15 09:35:00,
2013-09-15 05:36:00,47.3,42.4,30.13,SE,130,10.4,10.4,83,0.00,CLR,,0.00,WeatherDisplay:10.37,2013-09-15 09:36:00,
2013-09-15 05:37:00,47.3,42.4,30.13,SSE,151,10.4,10.4,83,0.00,CLR,,0.00,WeatherDisplay:10.37,2013-09-15 09:37:00,
2013-09-15 05:41:00,47.3,42.1,30.14,SSE,152,6.9,6.9,82,0.00,CLR,,0.00,WeatherDisplay:10.37,2013-09-15 09:41:00,
2013-09-15 05:42:00,47.3,42.1,30.14,SE,144,11.0,11.0,82,0.00,CLR,,0.00,WeatherDisplay:10.37,2013-09-15 09:42:00,
2013-09-15 05:43:00,47.3,42.1,30.14,SSE,161,8.1,8.1,82,0.00,CLR,,0.00,WeatherDisplay:10.37,2013-09-15 09:43:00,
2013-09-15 05:46:00,47.4,42.2,30.14,SE,134,11.5,11.5,82,0.00,CLR,,0.00,WeatherDisplay:10.37,2013-09-15 09:46:00,
2013-09-15 05:47:00,47.4,42.2,30.14,SSE,155,11.5,11.5,82,0.00,CLR,,0.00,WeatherDisplay:10.37,2013-09-15 09:47:00,
2013-09-15 05:48:00,47.4,42.2,30.14,SE,134,11.5,11.5,82,0.00,CLR,,0.00,WeatherDisplay:10.37,2013-09-15 09:48:00,
2013-09-15 05:51:00,47.4,42.2,30.14,SSE,154,8.1,8.1,82,0.00,CLR,,0.00,WeatherDisplay:10.37,2013-09-15 09:51:00,
2013-09-15 05:52:00,47.4,42.2,30.14,SE,131,8.0,8.0,82,0.00,CLR,,0.00,WeatherDisplay:10.37,2013-09-15 09:52:00,
2013-09-15 05:53:00,47.4,42.2,30.14,SSE,154,10.4,10.4,82,0.00,CLR,,0.00,WeatherDisplay:10.37,2013-09-15 09:53:00,
2013-09-15 05:54:00,47.4,42.2,30.14,SE,145,10.4,10.4,82,0.00,CLR,,0.00,WeatherDisplay:10.37,2013-09-15 09:54:00,
2013-09-15 05:56:00,47.4,42.2,30.14,SSE,150,7.0,7.0,82,0.00,CLR,,0.00,WeatherDisplay:10.37,2013-09-15 09:56:00,
2013-09-15 05:57:00,47.3,42.1,30.14,SSE,150,8.1,8.1,82,0.00,CLR,,0.00,WeatherDisplay:10.37,2013-09-15 09:57:00,
2013-09-15 05:58:00,47.3,42.1,30.14,SE,144,8.1,8.1,82,0.00,CLR,,0.00,WeatherDisplay:10.37,2013-09-15 09:58:00,
2013-09-15 05:59:00,47.3,42.1,30.14,SE,145,6.9,6.9,82,0.00,CLR,,0.00,WeatherDisplay:10.37,2013-09-15 09:59:00,
2013-09-15 06:00:00,47.1,41.9,30.14,SSE,151,7.0,7.0,82,0.00,CLR,,0.00,WeatherDisplay:10.37,2013-09-15 10:00:00,
2013-09-15 06:01:00,47.1,42.2,30.14,SSE,158,7.0,7.0,83,0.00,CLR,,0.00,WeatherDisplay:10.37,2013-09-15 10:01:00,
2013-09-15 06:02:00,47.1,41.9,30.14,SSE,167,11.5,11.5,82,0.00,CLR,,0.00,WeatherDisplay:10.37,2013-09-15 10:02:00,
2013-09-15 06:03:00,47.1,41.9,30.14,SSE,147,11.5,11.5,82,0.00,CLR,,0.00,WeatherDisplay:10.37,2013-09-15 10:03:00,
2013-09-15 06:04:00,47.1,42.2,30.14,SE,145,11.5,11.5,83,0.00,CLR,,0.00,WeatherDisplay:10.37,2013-09-15 10:04:00,
2013-09-15 06:06:00,47.1,41.9,30.14,SSE,162,11.5,11.5,82,0.00,CLR,,0.00,WeatherDisplay:10.37,2013-09-15 10:06:00,
2013-09-15 06:07:00,47.1,41.9,30.14,South,174,6.9,6.9,82,0.00,CLR,,0.00,WeatherDisplay:10.37,2013-09-15 10:07:00,
2013-09-15 06:08:00,47.1,42.2,30.14,SSE,147,11.5,11.5,83,0.00,CLR,,0.00,WeatherDisplay:10.37,2013-09-15 10:08:00,
2013-09-15 06:09:00,47.1,41.9,30.14,SSE,151,11.5,11.5,82,0.00,CLR,,0.00,WeatherDisplay:10.37,2013-09-15 10:09:00,
2013-09-15 06:11:00,47.1,41.9,30.14,SSE,148,10.0,10.0,82,0.00,CLR,,0.00,WeatherDisplay:10.37,2013-09-15 10:11:00,
2013-09-15 06:12:00,47.1,41.9,30.15,South,185,12.7,12.7,82,0.00,CLR,,0.00,WeatherDisplay:10.37,2013-09-15 10:12:00,
2013-09-15 06:13:00,47.1,41.9,30.15,SE,141,10.0,10.0,82,0.00,CLR,,0.00,WeatherDisplay:10.37,2013-09-15 10:13:00,
2013-09-15 06:15:00,47.1,41.9,30.15,SSE,161,10.4,10.4,82,0.00,CLR,,0.00,WeatherDisplay:10.37,2013-09-15 10:15:00,
2013-09-15 06:16:00,47.0,41.8,30.15,SSE,162,8.1,9.3,82,0.00,CLR,,0.00,WeatherDisplay:10.37,2013-09-15 10:16:00,
2013-09-15 06:17:00,47.0,41.8,30.15,SSE,162,8.1,9.1,82,0.00,CLR,,0.00,WeatherDisplay:10.37,2013-09-15 10:17:00,
2013-09-15 06:18:00,47.0,41.8,30.15,SSE,167,10.4,10.4,82,0.00,CLR,,0.00,WeatherDisplay:10.37,2013-09-15 10:18:00,
2013-09-15 06:20:00,47.0,41.8,30.15,SSE,150,7.0,7.3,82,0.00,CLR,,0.00,WeatherDisplay:10.37,2013-09-15 10:20:00,
2013-09-15 06:22:00,47.0,41.8,30.15,SSE,160,6.9,6.9,82,0.00,CLR,,0.00,WeatherDisplay:10.37,2013-09-15 10:22:00,
2013-09-15 06:23:00,47.0,41.8,30.15,SE,140,11.0,11.0,82,0.00,CLR,,0.00,WeatherDisplay:10.37,2013-09-15 10:23:00,
2013-09-15 06:25:00,47.0,41.8,30.15,SSE,165,8.1,8.1,82,0.00,CLR,,0.00,WeatherDisplay:10.37,2013-09-15 10:25:00,
2013-09-15 06:26:00,47.0,41.8,30.15,SSE,165,8.1,8.1,82,0.00,CLR,,0.00,WeatherDisplay:10.37,2013-09-15 10:26:00,
2013-09-15 06:27:00,47.1,41.9,30.15,SSE,155,10.4,10.4,82,0.00,CLR,,0.00,WeatherDisplay:10.37,2013-09-15 10:27:00,
2013-09-15 06:28:00,47.1,41.9,30.15,SSE,155,9.2,9.2,82,0.00,CLR,,0.00,WeatherDisplay:10.37,2013-09-15 10:28:00,
2013-09-15 06:31:00,47.3,42.1,30.15,SE,144,8.1,8.1,82,0.00,CLR,,0.00,WeatherDisplay:10.37,2013-09-15 10:31:00,
2013-09-15 06:32:00,47.4,41.9,30.15,SSE,151,9.2,9.2,81,0.00,CLR,,0.00,WeatherDisplay:10.37,2013-09-15 10:32:00,
2013-09-15 06:33:00,47.4,41.9,30.15,SSE,148,9.2,9.2,81,0.00,CLR,,0.00,WeatherDisplay:10.37,2013-09-15 10:33:00,
2013-09-15 06:36:00,47.4,41.9,30.15,SE,133,11.5,11.5,81,0.00,CLR,,0.00,WeatherDisplay:10.37,2013-09-15 10:36:00,
2013-09-15 06:37:00,47.4,41.9,30.15,SE,144,10.4,10.4,81,0.00,CLR,,0.00,WeatherDisplay:10.37,2013-09-15 10:37:00,
2013-09-15 06:38:00,47.6,42.1,30.15,SE,145,10.4,10.4,81,0.00,CLR,,0.00,WeatherDisplay:10.37,2013-09-15 10:38:00,
2013-09-15 06:39:00,47.6,41.7,30.15,South,176,10.4,10.4,80,0.00,CLR,,0.00,WeatherDisplay:10.37,2013-09-15 10:39:00,
2013-09-15 06:41:00,47.6,41.7,30.15,SE,134,6.0,6.0,80,0.00,CLR,,0.00,WeatherDisplay:10.37,2013-09-15 10:41:00,
2013-09-15 06:42:00,47.6,41.7,30.15,SSE,158,6.0,6.7,80,0.00,CLR,,0.00,WeatherDisplay:10.37,2013-09-15 10:42:00,
2013-09-15 06:43:00,47.6,41.7,30.15,South,182,10.4,10.4,80,0.00,CLR,,0.00,WeatherDisplay:10.37,2013-09-15 10:43:00,
2013-09-15 06:44:00,47.7,41.8,30.15,South,179,11.5,11.5,80,0.00,CLR,,0.00,WeatherDisplay:10.37,2013-09-15 10:44:00,
2013-09-15 06:47:00,47.7,41.8,30.15,SE,137,11.5,11.5,80,0.00,CLR,,0.00,WeatherDisplay:10.37,2013-09-15 10:47:00,
2013-09-15 06:48:00,47.7,41.8,30.16,SSE,154,8.1,8.1,80,0.00,CLR,,0.00,WeatherDisplay:10.37,2013-09-15 10:48:00,
2013-09-15 06:49:00,47.7,41.8,30.16,SE,141,12.0,12.0,80,0.00,CLR,,0.00,WeatherDisplay:10.37,2013-09-15 10:49:00,
2013-09-15 06:52:00,47.6,41.7,30.16,SSE,167,10.4,10.4,80,0.00,CLR,,0.00,WeatherDisplay:10.37,2013-09-15 10:52:00,
2013-09-15 06:53:00,47.6,41.7,30.16,SSE,151,10.4,10.4,80,0.00,CLR,,0.00,WeatherDisplay:10.37,2013-09-15 10:53:00,
2013-09-15 06:54:00,47.4,41.5,30.16,SSE,152,6.9,6.9,80,0.00,CLR,,0.00,WeatherDisplay:10.37,2013-09-15 10:54:00,
2013-09-15 06:57:00,47.4,41.9,30.16,South,169,11.5,11.5,81,0.00,CLR,,0.00,WeatherDisplay:10.37,2013-09-15 10:57:00,
2013-09-15 06:58:00,47.4,41.9,30.16,South,169,11.5,11.5,81,0.00,CLR,,0.00,WeatherDisplay:10.37,2013-09-15 10:58:00,
2013-09-15 06:59:00,47.4,41.9,30.16,SSE,151,7.0,7.0,81,0.00,CLR,,0.00,WeatherDisplay:10.37,2013-09-15 10:59:00,
2013-09-15 07:03:00,47.4,41.9,30.16,SSE,154,8.1,8.1,81,0.00,CLR,,0.00,WeatherDisplay:10.37,2013-09-15 11:03:00,
2013-09-15 07:04:00,47.4,41.9,30.16,SE,138,10.4,10.4,81,0.00,CLR,,0.00,WeatherDisplay:10.37,2013-09-15 11:04:00,
2013-09-15 07:08:00,47.6,41.7,30.17,SSE,160,10.4,10.4,80,0.00,CLR,,0.00,WeatherDisplay:10.37,2013-09-15 11:08:00,
2013-09-15 07:09:00,47.6,41.7,30.17,SSE,160,10.4,10.4,80,0.00,CLR,,0.00,WeatherDisplay:10.37,2013-09-15 11:09:00,
2013-09-15 07:14:00,47.6,41.7,30.17,SSE,165,8.1,8.1,80,0.00,CLR,,0.00,WeatherDisplay:10.37,2013-09-15 11:14:00,
2013-09-15 07:15:00,47.6,41.7,30.17,SSE,154,8.1,8.1,80,0.00,CLR,,0.00,WeatherDisplay:10.37,2013-09-15 11:15:00,
2013-09-15 07:16:00,47.6,41.7,30.17,SSE,161,6.9,6.9,80,0.00,CLR,,0.00,WeatherDisplay:10.37,2013-09-15 11:16:00,
2013-09-15 07:19:00,47.7,41.8,30.17,SSE,161,6.9,6.9,80,0.00,CLR,,0.00,WeatherDisplay:10.37,2013-09-15 11:19:00,
2013-09-15 07:20:00,47.7,41.8,30.17,South,171,6.9,6.9,80,0.00,CLR,,0.00,WeatherDisplay:10.37,2013-09-15 11:20:00,
2013-09-15 07:21:00,47.7,41.8,30.17,SSE,150,8.1,8.1,80,0.00,CLR,,0.00,WeatherDisplay:10.37,2013-09-15 11:21:00,
2013-09-15 07:24:00,48.0,41.8,30.17,SE,133,10.4,10.4,79,0.00,CLR,,0.00,WeatherDisplay:10.37,2013-09-15 11:24:00,
2013-09-15 07:25:00,48.0,41.8,30.17,SE,133,10.4,10.4,79,0.00,CLR,,0.00,WeatherDisplay:10.37,2013-09-15 11:25:00,
2013-09-15 07:26:00,48.0,41.8,30.17,SE,143,11.5,11.5,79,0.00,CLR,,0.00,WeatherDisplay:10.37,2013-09-15 11:26:00,
2013-09-15 07:29:00,48.3,42.1,30.17,SSE,150,10.4,10.4,79,0.00,CLR,,0.00,WeatherDisplay:10.37,2013-09-15 11:29:00,
2013-09-15 07:30:00,48.3,42.1,30.17,SSE,150,10.4,10.4,79,0.00,CLR,,0.00,WeatherDisplay:10.37,2013-09-15 11:30:00,
2013-09-15 07:31:00,48.3,42.1,30.17,SSE,154,8.1,8.1,79,0.00,CLR,,0.00,WeatherDisplay:10.37,2013-09-15 11:31:00,
2013-09-15 07:32:00,48.3,42.1,30.17,SE,141,8.1,8.1,79,0.00,CLR,,0.00,WeatherDisplay:10.37,2013-09-15 11:32:00,
2013-09-15 07:35:00,48.5,42.0,30.17,SE,145,11.5,11.5,78,0.00,CLR,,0.00,WeatherDisplay:10.37,2013-09-15 11:35:00,
2013-09-15 07:36:00,48.5,42.0,30.17,SSE,147,10.4,10.4,78,0.00,CLR,,0.00,WeatherDisplay:10.37,2013-09-15 11:36:00,
2013-09-15 07:37:00,48.5,42.0,30.17,SSE,155,8.1,8.1,78,0.00,CLR,,0.00,WeatherDisplay:10.37,2013-09-15 11:37:00,
2013-09-15 07:40:00,48.6,42.0,30.17,SSE,152,6.9,6.9,78,0.00,CLR,,0.00,WeatherDisplay:10.37,2013-09-15 11:40:00,
2013-09-15 07:42:00,48.6,42.0,30.17,SE,133,10.4,10.4,78,0.00,CLR,,0.00,WeatherDisplay:10.37,2013-09-15 11:42:00,
2013-09-15 07:45:00,48.6,42.0,30.18,SE,145,8.1,8.1,78,0.00,CLR,,0.00,WeatherDisplay:10.37,2013-09-15 11:45:00,
2013-09-15 07:47:00,48.6,42.0,30.17,SE,145,8.1,8.1,78,0.00,CLR,,0.00,WeatherDisplay:10.37,2013-09-15 11:47:00,
2013-09-15 07:48:00,48.6,42.0,30.18,SSE,148,8.1,8.1,78,0.00,CLR,,0.00,WeatherDisplay:10.37,2013-09-15 11:48:00,
2013-09-15 07:50:00,48.6,42.0,30.18,SE,143,8.1,8.1,78,0.00,CLR,,0.00,WeatherDisplay:10.37,2013-09-15 11:50:00,
2013-09-15 07:52:00,48.6,42.0,30.18,SSE,150,10.4,10.4,78,0.00,CLR,,0.00,WeatherDisplay:10.37,2013-09-15 11:52:00,
2013-09-15 07:53:00,48.6,42.0,30.18,SSE,150,10.4,10.4,78,0.00,CLR,,0.00,WeatherDisplay:10.37,2013-09-15 11:53:00,
2013-09-15 07:55:00,48.6,42.0,30.18,SSE,165,11.5,11.5,78,0.00,CLR,,0.00,WeatherDisplay:10.37,2013-09-15 11:55:00,
2013-09-15 07:56:00,48.6,42.0,30.18,SSE,151,5.8,5.8,78,0.00,CLR,,0.00,WeatherDisplay:10.37,2013-09-15 11:56:00,
2013-09-15 07:57:00,48.6,42.0,30.18,SSE,167,9.2,9.2,78,0.00,CLR,,0.00,WeatherDisplay:10.37,2013-09-15 11:57:00,
2013-09-15 07:58:00,48.6,42.0,30.18,South,169,6.9,6.9,78,0.00,CLR,,0.00,WeatherDisplay:10.37,2013-09-15 11:58:00,
2013-09-15 07:59:00,48.6,42.0,30.18,SE,137,6.9,6.9,78,0.00,CLR,,0.00,WeatherDisplay:10.37,2013-09-15 11:59:00,
2013-09-15 08:00:00,48.6,42.0,30.18,SSE,165,11.5,11.5,78,0.00,CLR,,0.00,WeatherDisplay:10.37,2013-09-15 12:00:00,
2013-09-15 08:01:00,48.6,42.0,30.18,SSE,150,11.5,11.5,78,0.00,CLR,,0.00,WeatherDisplay:10.37,2013-09-15 12:01:00,
2013-09-15 08:03:00,48.6,42.0,30.18,SSE,148,11.5,11.5,78,0.00,CLR,,0.00,WeatherDisplay:10.37,2013-09-15 12:03:00,
2013-09-15 08:04:00,48.6,42.0,30.18,SSE,161,10.4,10.4,78,0.00,CLR,,0.00,WeatherDisplay:10.37,2013-09-15 12:04:00,
2013-09-15 08:05:00,48.6,42.0,30.18,SSE,150,10.4,10.4,78,0.00,CLR,,0.00,WeatherDisplay:10.37,2013-09-15 12:05:00,
2013-09-15 08:06:00,48.6,42.0,30.18,SSE,151,10.4,10.4,78,0.00,CLR,,0.00,WeatherDisplay:10.37,2013-09-15 12:06:00,
2013-09-15 08:09:00,48.8,42.2,30.18,SE,140,9.2,9.2,78,0.00,CLR,,0.00,WeatherDisplay:10.37,2013-09-15 12:09:00,
2013-09-15 08:10:00,48.8,42.2,30.19,SSE,161,8.1,8.1,78,0.00,CLR,,0.00,WeatherDisplay:10.37,2013-09-15 12:10:00,
2013-09-15 08:11:00,48.8,42.2,30.19,SSE,147,8.1,8.1,78,0.00,CLR,,0.00,WeatherDisplay:10.37,2013-09-15 12:11:00,
2013-09-15 08:12:00,48.9,42.3,30.19,SSE,147,8.1,8.1,78,0.00,CLR,,0.00,WeatherDisplay:10.37,2013-09-15 12:12:00,
2013-09-15 08:14:00,49.1,42.5,30.19,SSE,150,6.9,6.9,78,0.00,CLR,,0.00,WeatherDisplay:10.37,2013-09-15 12:14:00,
2013-09-15 08:15:00,49.2,42.3,30.19,SSE,160,10.4,10.4,77,0.00,CLR,,0.00,WeatherDisplay:10.37,2013-09-15 12:15:00,
2013-09-15 08:16:00,49.2,42.3,30.19,SSE,158,10.4,10.4,77,0.00,CLR,,0.00,WeatherDisplay:10.37,2013-09-15 12:16:00,
2013-09-15 08:17:00,49.4,42.5,30.19,SSE,165,10.4,10.4,77,0.00,CLR,,0.00,WeatherDisplay:10.37,2013-09-15 12:17:00,
2013-09-15 08:19:00,49.5,42.2,30.18,SSE,148,10.4,10.4,76,0.00,CLR,,0.00,WeatherDisplay:10.37,2013-09-15 12:19:00,
2013-09-15 08:21:00,49.5,42.6,30.19,South,176,9.2,9.2,77,0.00,CLR,,0.00,WeatherDisplay:10.37,2013-09-15 12:21:00,
2013-09-15 08:22:00,49.6,42.7,30.19,South,169,6.9,6.9,77,0.00,CLR,,0.00,WeatherDisplay:10.37,2013-09-15 12:22:00,
2013-09-15 08:25:00,49.8,42.5,30.19,SSE,148,8.1,8.1,76,0.00,CLR,,0.00,WeatherDisplay:10.37,2013-09-15 12:25:00,
2013-09-15 08:26:00,49.9,42.6,30.19,South,172,8.1,8.1,76,0.00,CLR,,0.00,WeatherDisplay:10.37,2013-09-15 12:26:00,
2013-09-15 08:27:00,49.9,42.6,30.19,SE,140,8.0,8.0,76,0.00,CLR,,0.00,WeatherDisplay:10.37,2013-09-15 12:27:00,
2013-09-15 08:30:00,50.1,42.8,30.19,South,174,6.9,6.9,76,0.00,CLR,,0.00,WeatherDisplay:10.37,2013-09-15 12:30:00,
2013-09-15 08:31:00,50.2,42.9,30.18,SSE,164,6.9,6.9,76,0.00,CLR,,0.00,WeatherDisplay:10.37,2013-09-15 12:31:00,
2013-09-15 08:32:00,50.2,42.9,30.18,South,181,6.9,6.9,76,0.00,CLR,,0.00,WeatherDisplay:10.37,2013-09-15 12:32:00,
2013-09-15 08:36:00,50.7,43.1,30.18,South,175,10.4,10.4,75,0.00,CLR,,0.00,WeatherDisplay:10.37,2013-09-15 12:36:00,
2013-09-15 08:37:00,50.7,43.1,30.18,SSE,151,11.5,11.5,75,0.00,CLR,,0.00,WeatherDisplay:10.37,2013-09-15 12:37:00,
2013-09-15 08:39:00,50.8,43.2,30.18,SE,133,8.0,8.0,75,0.00,CLR,,0.00,WeatherDisplay:10.37,2013-09-15 12:39:00,
2013-09-15 08:42:00,51.0,43.4,30.18,SSE,162,8.1,8.1,75,0.00,CLR,,0.00,WeatherDisplay:10.37,2013-09-15 12:42:00,
2013-09-15 08:43:00,51.0,43.4,30.18,SSE,152,8.1,8.1,75,0.00,CLR,,0.00,WeatherDisplay:10.37,2013-09-15 12:43:00,
2013-09-15 08:44:00,51.0,43.4,30.18,SE,131,10.4,10.4,75,0.00,CLR,,0.00,WeatherDisplay:10.37,2013-09-15 12:44:00,
2013-09-15 08:47:00,51.1,43.8,30.18,SSE,147,10.4,10.4,76,0.00,CLR,,0.00,WeatherDisplay:10.37,2013-09-15 12:47:00,
2013-09-15 08:48:00,51.1,43.8,30.18,SSE,150,8.1,8.1,76,0.00,CLR,,0.00,WeatherDisplay:10.37,2013-09-15 12:48:00,
2013-09-15 08:49:00,51.1,43.8,30.18,SE,134,6.0,6.0,76,0.00,CLR,,0.00,WeatherDisplay:10.37,2013-09-15 12:49:00,
2013-09-15 08:51:00,51.1,43.8,30.18,SE,137,9.2,9.2,76,0.00,CLR,,0.00,WeatherDisplay:10.37,2013-09-15 12:51:00,
2013-09-15 08:52:00,51.3,44.0,30.18,SSE,155,8.1,8.1,76,0.00,CLR,,0.00,WeatherDisplay:10.37,2013-09-15 12:52:00,
2013-09-15 08:54:00,51.3,44.0,30.18,SSE,151,8.1,8.1,76,0.00,CLR,,0.00,WeatherDisplay:10.37,2013-09-15 12:54:00,
2013-09-15 08:55:00,51.3,44.0,30.18,South,172,8.1,8.1,76,0.00,CLR,,0.00,WeatherDisplay:10.37,2013-09-15 12:55:00,
2013-09-15 08:56:00,51.4,44.1,30.18,SSE,167,8.1,8.1,76,0.00,CLR,,0.00,WeatherDisplay:10.37,2013-09-15 12:56:00,
2013-09-15 08:57:00,51.4,44.1,30.18,SSE,151,7.0,7.0,76,0.00,CLR,,0.00,WeatherDisplay:10.37,2013-09-15 12:57:00,
2013-09-15 08:59:00,51.6,44.3,30.18,SE,141,8.1,8.1,76,0.00,CLR,,0.00,WeatherDisplay:10.37,2013-09-15 12:59:00,
2013-09-15 09:00:00,51.7,44.4,30.18,SE,141,8.1,8.1,76,0.00,CLR,,0.00,WeatherDisplay:10.37,2013-09-15 13:00:00,
2013-09-15 09:01:00,51.9,44.6,30.18,SSE,147,6.0,6.0,76,0.00,CLR,,0.00,WeatherDisplay:10.37,2013-09-15 13:01:00,
2013-09-15 09:02:00,51.9,44.2,30.18,SSE,151,8.1,8.1,75,0.00,CLR,,0.00,WeatherDisplay:10.37,2013-09-15 13:02:00,
2013-09-15 09:03:00,52.0,44.3,30.18,SSE,161,8.1,8.1,75,0.00,CLR,,0.00,WeatherDisplay:10.37,2013-09-15 13:03:00,
2013-09-15 09:04:00,52.2,44.9,30.18,SSE,161,8.1,8.1,76,0.00,CLR,,0.00,WeatherDisplay:10.37,2013-09-15 13:04:00,
2013-09-15 09:07:00,52.5,44.8,30.18,SSE,157,10.4,10.4,75,0.00,CLR,,0.00,WeatherDisplay:10.37,2013-09-15 13:07:00,
2013-09-15 09:08:00,52.8,45.1,30.18,SSE,157,6.0,6.0,75,0.00,CLR,,0.00,WeatherDisplay:10.37,2013-09-15 13:08:00,
2013-09-15 09:09:00,52.9,44.8,30.18,SSE,150,8.1,8.1,74,0.00,CLR,,0.00,WeatherDisplay:10.37,2013-09-15 13:09:00,
2013-09-15 09:10:00,52.9,44.8,30.18,SSE,151,8.1,8.1,74,0.00,CLR,,0.00,WeatherDisplay:10.37,2013-09-15 13:10:00,
2013-09-15 09:12:00,53.3,44.9,30.18,SSE,162,4.6,4.6,73,0.00,CLR,,0.00,WeatherDisplay:10.37,2013-09-15 13:12:00,
2013-09-15 09:13:00,53.6,45.2,30.18,SSE,162,6.9,6.9,73,0.00,CLR,,0.00,WeatherDisplay:10.37,2013-09-15 13:13:00,
2013-09-15 09:15:00,53.8,45.3,30.18,SSE,157,8.1,8.1,73,0.00,CLR,,0.00,WeatherDisplay:10.37,2013-09-15 13:15:00,
2013-09-15 09:17:00,54.1,45.3,30.18,SSW,213,3.5,3.5,72,0.00,CLR,,0.00,WeatherDisplay:10.37,2013-09-15 13:17:00,
2013-09-15 09:18:00,54.4,45.9,30.18,SSE,165,8.1,8.1,73,0.00,CLR,,0.00,WeatherDisplay:10.37,2013-09-15 13:18:00,
2013-09-15 09:20:00,54.8,45.6,30.18,SSW,193,6.9,6.9,71,0.00,CLR,,0.00,WeatherDisplay:10.37,2013-09-15 13:20:00,
2013-09-15 09:22:00,55.3,44.5,30.18,SSE,167,5.8,5.8,67,0.00,CLR,,0.00,WeatherDisplay:10.37,2013-09-15 13:22:00,
2013-09-15 09:23:00,55.4,44.6,30.18,SSE,154,10.4,10.4,67,0.00,CLR,,0.00,WeatherDisplay:10.37,2013-09-15 13:23:00,
2013-09-15 09:24:00,55.7,44.5,30.18,South,175,10.4,10.4,66,0.00,CLR,,0.00,WeatherDisplay:10.37,2013-09-15 13:24:00,
2013-09-15 09:25:00,55.9,44.7,30.18,South,189,3.5,3.5,66,0.00,CLR,,0.00,WeatherDisplay:10.37,2013-09-15 13:25:00,
2013-09-15 09:26:00,56.0,44.8,30.18,SSE,162,3.5,3.5,66,0.00,CLR,,0.00,WeatherDisplay:10.37,2013-09-15 13:26:00,
2013-09-15 09:28:00,56.3,44.7,30.18,SSE,162,2.3,2.3,65,0.00,CLR,,0.00,WeatherDisplay:10.37,2013-09-15 13:28:00,
2013-09-15 09:29:00,56.3,44.7,30.18,SW,227,1.1,1.1,65,0.00,CLR,,0.00,WeatherDisplay:10.37,2013-09-15 13:29:00,
2013-09-15 09:30:00,56.5,44.9,30.18,South,174,4.6,4.6,65,0.00,CLR,,0.00,WeatherDisplay:10.37,2013-09-15 13:30:00,
2013-09-15 09:31:00,56.5,44.9,30.18,South,174,3.5,3.5,65,0.00,CLR,,0.00,WeatherDisplay:10.37,2013-09-15 13:31:00,
2013-09-15 09:33:00,56.5,45.3,30.18,South,174,0.0,0.0,66,0.00,CLR,,0.00,WeatherDisplay:10.37,2013-09-15 13:33:00,
2013-09-15 09:34:00,56.5,44.9,30.18,South,172,5.0,5.0,65,0.00,CLR,,0.00,WeatherDisplay:10.37,2013-09-15 13:34:00,
2013-09-15 09:35:00,56.5,44.9,30.18,SSE,157,5.8,5.8,65,0.00,CLR,,0.00,WeatherDisplay:10.37,2013-09-15 13:35:00,
2013-09-15 09:37:00,56.5,44.9,30.18,SSE,155,6.0,6.0,65,0.00,CLR,,0.00,WeatherDisplay:10.37,2013-09-15 13:37:00,
2013-09-15 09:38:00,56.5,45.3,30.18,SSE,164,6.9,6.9,66,0.00,CLR,,0.00,WeatherDisplay:10.37,2013-09-15 13:38:00,
2013-09-15 09:39:00,56.5,44.9,30.18,South,175,6.9,6.9,65,0.00,CLR,,0.00,WeatherDisplay:10.37,2013-09-15 13:39:00,
2013-09-15 09:40:00,56.5,45.3,30.18,SE,143,5.8,5.8,66,0.00,CLR,,0.00,WeatherDisplay:10.37,2013-09-15 13:40:00,
2013-09-15 09:41:00,56.5,45.3,30.18,SE,144,10.4,10.4,66,0.00,CLR,,0.00,WeatherDisplay:10.37,2013-09-15 13:41:00,
2013-09-15 09:42:00,56.5,45.3,30.18,SSE,152,5.8,5.8,66,0.00,CLR,,0.00,WeatherDisplay:10.37,2013-09-15 13:42:00,
2013-09-15 09:43:00,56.5,45.3,30.18,SE,141,6.9,6.9,66,0.00,CLR,,0.00,WeatherDisplay:10.37,2013-09-15 13:43:00,
2013-09-15 09:45:00,56.6,45.4,30.18,SSE,154,5.8,5.8,66,0.00,CLR,,0.00,WeatherDisplay:10.37,2013-09-15 13:45:00,
2013-09-15 09:46:00,56.6,45.4,30.18,SE,138,8.1,8.1,66,0.00,CLR,,0.00,WeatherDisplay:10.37,2013-09-15 13:46:00,
2013-09-15 09:47:00,56.7,45.1,30.18,SSE,154,8.1,8.1,65,0.00,CLR,,0.00,WeatherDisplay:10.37,2013-09-15 13:47:00,
2013-09-15 09:48:00,56.7,45.1,30.18,SE,138,8.1,8.1,65,0.00,CLR,,0.00,WeatherDisplay:10.37,2013-09-15 13:48:00,
2013-09-15 09:50:00,56.9,44.8,30.18,SSE,155,9.2,9.2,64,0.00,CLR,,0.00,WeatherDisplay:10.37,2013-09-15 13:50:00,
2013-09-15 09:51:00,57.2,45.5,30.18,SSE,150,6.9,6.9,65,0.00,CLR,,0.00,WeatherDisplay:10.37,2013-09-15 13:51:00,
2013-09-15 09:52:00,57.5,45.8,30.18,SSE,148,10.4,10.4,65,0.00,CLR,,0.00,WeatherDisplay:10.37,2013-09-15 13:52:00,
2013-09-15 09:54:00,57.6,45.9,30.18,SSE,151,5.8,5.8,65,0.00,CLR,,0.00,WeatherDisplay:10.37,2013-09-15 13:54:00,
2013-09-15 09:55:00,58.0,46.3,30.18,SSE,147,8.1,8.1,65,0.00,CLR,,0.00,WeatherDisplay:10.37,2013-09-15 13:55:00,
2013-09-15 09:56:00,58.3,45.8,30.18,SE,144,6.9,6.9,63,0.00,CLR,,0.00,WeatherDisplay:10.37,2013-09-15 13:56:00,
2013-09-15 09:58:00,58.4,46.3,30.18,SE,144,10.0,10.0,64,0.00,CLR,,0.00,WeatherDisplay:10.37,2013-09-15 13:58:00,
2013-09-15 09:59:00,58.7,46.1,30.18,SE,128,10.4,10.4,63,0.00,CLR,,0.00,WeatherDisplay:10.37,2013-09-15 13:59:00,
2013-09-15 10:00:00,58.7,45.7,30.18,SE,130,11.5,11.5,62,0.00,CLR,,0.00,WeatherDisplay:10.37,2013-09-15 14:00:00,
2013-09-15 10:01:00,58.7,45.7,30.18,SSE,161,11.5,11.5,62,0.00,CLR,,0.00,WeatherDisplay:10.37,2013-09-15 14:01:00,
2013-09-15 10:03:00,59.0,46.4,30.18,SSE,151,8.1,8.1,63,0.00,CLR,,0.00,WeatherDisplay:10.37,2013-09-15 14:03:00,
2013-09-15 10:04:00,59.0,46.4,30.18,SE,136,8.1,8.1,63,0.00,CLR,,0.00,WeatherDisplay:10.37,2013-09-15 14:04:00,
2013-09-15 10:05:00,59.2,46.2,30.18,SSE,158,9.2,9.2,62,0.00,CLR,,0.00,WeatherDisplay:10.37,2013-09-15 14:05:00,
2013-09-15 10:06:00,59.3,46.7,30.18,SSW,200,4.6,4.6,63,0.00,CLR,,0.00,WeatherDisplay:10.37,2013-09-15 14:06:00,
2013-09-15 10:07:00,59.3,46.7,30.18,SSW,200,4.6,4.6,63,0.00,CLR,,0.00,WeatherDisplay:10.37,2013-09-15 14:07:00,
2013-09-15 10:09:00,59.6,47.0,30.18,SSE,158,6.9,6.9,63,0.00,CLR,,0.00,WeatherDisplay:10.37,2013-09-15 14:09:00,
2013-09-15 10:10:00,59.6,46.6,30.18,SSE,162,6.9,6.9,62,0.00,CLR,,0.00,WeatherDisplay:10.37,2013-09-15 14:10:00,
2013-09-15 10:11:00,59.8,46.7,30.18,SSE,155,5.8,5.8,62,0.00,CLR,,0.00,WeatherDisplay:10.37,2013-09-15 14:11:00,
2013-09-15 10:12:00,59.8,46.7,30.18,SSE,160,5.8,5.8,62,0.00,CLR,,0.00,WeatherDisplay:10.37,2013-09-15 14:12:00,
2013-09-15 10:14:00,59.9,46.4,30.18,South,169,9.0,9.0,61,0.00,CLR,,0.00,WeatherDisplay:10.37,2013-09-15 14:14:00,
2013-09-15 10:15:00,59.9,46.0,30.18,SSE,155,11.5,11.5,60,0.00,CLR,,0.00,WeatherDisplay:10.37,2013-09-15 14:15:00,
2013-09-15 10:16:00,60.1,46.6,30.18,SSE,162,6.9,6.9,61,0.00,CLR,,0.00,WeatherDisplay:10.37,2013-09-15 14:16:00,
2013-09-15 10:17:00,60.1,47.0,30.18,SSE,161,3.5,3.5,62,0.00,CLR,,0.00,WeatherDisplay:10.37,2013-09-15 14:17:00,
2013-09-15 10:19:00,60.2,46.7,30.18,SSE,148,10.4,10.4,61,0.00,CLR,,0.00,WeatherDisplay:10.37,2013-09-15 14:19:00,
2013-09-15 10:20:00,60.4,47.3,30.18,SE,141,10.0,10.0,62,0.00,CLR,,0.00,WeatherDisplay:10.37,2013-09-15 14:20:00,
2013-09-15 10:21:00,60.4,47.3,30.18,SSE,165,10.4,10.4,62,0.00,CLR,,0.00,WeatherDisplay:10.37,2013-09-15 14:21:00,
2013-09-15 10:22:00,60.5,47.4,30.18,SSE,165,9.2,9.2,62,0.00,CLR,,0.00,WeatherDisplay:10.37,2013-09-15 14:22:00,
2013-09-15 10:23:00,60.5,47.4,30.17,SSE,158,5.8,5.8,62,0.00,CLR,,0.00,WeatherDisplay:10.37,2013-09-15 14:23:00,
2013-09-15 10:24:00,60.5,47.0,30.17,South,174,8.1,8.1,61,0.00,CLR,,0.00,WeatherDisplay:10.37,2013-09-15 14:24:00,
2013-09-15 10:25:00,60.7,47.6,30.17,South,175,2.3,0.0,62,0.00,CLR,,0.00,WeatherDisplay:10.37,2013-09-15 14:25:00,
2013-09-15 10:26:00,60.9,47.8,30.17,South,175,3.0,3.0,62,0.00,CLR,,0.00,WeatherDisplay:10.37,2013-09-15 14:26:00,
2013-09-15 10:27:00,60.9,47.8,30.17,South,175,3.5,3.5,62,0.00,CLR,,0.00,WeatherDisplay:10.37,2013-09-15 14:27:00,
2013-09-15 10:28:00,61.2,48.1,30.17,SSW,200,1.1,0.0,62,0.00,CLR,,0.00,WeatherDisplay:10.37,2013-09-15 14:28:00,
2013-09-15 10:29:00,61.3,48.2,30.17,SSW,199,3.5,3.5,62,0.00,CLR,,0.00,WeatherDisplay:10.37,2013-09-15 14:29:00,
2013-09-15 10:31:00,61.5,47.9,30.17,SSW,210,0.0,0.0,61,0.00,CLR,,0.00,WeatherDisplay:10.37,2013-09-15 14:31:00,
2013-09-15 10:32:00,61.5,47.9,30.17,SSW,209,0.0,0.0,61,0.00,CLR,,0.00,WeatherDisplay:10.37,2013-09-15 14:32:00,
2013-09-15 10:33:00,61.6,47.1,30.17,SW,217,3.5,3.5,59,0.00,CLR,,0.00,WeatherDisplay:10.37,2013-09-15 14:33:00,
2013-09-15 10:36:00,61.8,47.3,30.17,SE,131,6.0,6.0,59,0.00,CLR,,0.00,WeatherDisplay:10.37,2013-09-15 14:36:00,
2013-09-15 10:37:00,61.8,46.9,30.17,WNW,285,6.9,6.9,58,0.00,CLR,,0.00,WeatherDisplay:10.37,2013-09-15 14:37:00,
2013-09-15 10:38:00,61.8,46.9,30.17,WNW,285,2.3,2.3,58,0.00,CLR,,0.00,WeatherDisplay:10.37,2013-09-15 14:38:00,
2013-09-15 10:41:00,61.8,47.3,30.17,SSW,198,3.5,3.5,59,0.00,CLR,,0.00,WeatherDisplay:10.37,2013-09-15 14:41:00,
2013-09-15 10:42:00,61.8,46.9,30.17,SW,219,3.5,3.5,58,0.00,CLR,,0.00,WeatherDisplay:10.37,2013-09-15 14:42:00,
2013-09-15 10:43:00,62.0,47.0,30.17,West,263,2.3,2.3,58,0.00,CLR,,0.00,WeatherDisplay:10.37,2013-09-15 14:43:00,
2013-09-15 10:44:00,62.0,47.0,30.17,West,263,2.3,2.3,58,0.00,CLR,,0.00,WeatherDisplay:10.37,2013-09-15 14:44:00,
2013-09-15 10:46:00,62.0,47.0,30.17,West,263,0.0,0.0,58,0.00,CLR,,0.00,WeatherDisplay:10.37,2013-09-15 14:46:00,
2013-09-15 10:47:00,62.0,47.0,30.17,SSE,167,3.5,3.5,58,0.00,CLR,,0.00,WeatherDisplay:10.37,2013-09-15 14:47:00,
2013-09-15 10:48:00,62.0,47.0,30.17,SSE,167,3.5,3.5,58,0.00,CLR,,0.00,WeatherDisplay:10.37,2013-09-15 14:48:00,
2013-09-15 10:49:00,62.0,47.0,30.17,SSE,167,3.5,3.5,58,0.00,CLR,,0.00,WeatherDisplay:10.37,2013-09-15 14:49:00,
2013-09-15 10:51:00,62.0,47.5,30.17,South,169,0.0,0.0,59,0.00,CLR,,0.00,WeatherDisplay:10.37,2013-09-15 14:51:00,
2013-09-15 10:53:00,62.0,47.5,30.17,SSE,164,3.0,3.0,59,0.00,CLR,,0.00,WeatherDisplay:10.37,2013-09-15 14:53:00,
2013-09-15 10:54:00,62.0,47.0,30.17,SSE,152,6.9,6.9,58,0.00,CLR,,0.00,WeatherDisplay:10.37,2013-09-15 14:54:00,
2013-09-15 10:55:00,62.0,47.5,30.17,SSE,150,4.6,4.6,59,0.00,CLR,,0.00,WeatherDisplay:10.37,2013-09-15 14:55:00,
2013-09-15 10:56:00,62.0,48.0,30.17,SSE,151,2.3,0.0,60,0.00,CLR,,0.00,WeatherDisplay:10.37,2013-09-15 14:56:00,
2013-09-15 10:58:00,62.1,47.6,30.17,SSE,151,0.0,0.0,59,0.00,CLR,,0.00,WeatherDisplay:10.37,2013-09-15 14:58:00,
2013-09-15 10:59:00,62.1,48.0,30.17,SSE,151,8.1,8.1,60,0.00,CLR,,0.00,WeatherDisplay:10.37,2013-09-15 14:59:00,
2013-09-15 11:01:00,62.3,47.8,30.17,South,179,5.0,5.0,59,0.00,CLR,,0.00,WeatherDisplay:10.37,2013-09-15 15:01:00,
2013-09-15 11:02:00,62.3,47.3,30.17,SSE,148,8.1,8.1,58,0.00,CLR,,0.00,WeatherDisplay:10.37,2013-09-15 15:02:00,
2013-09-15 11:03:00,62.3,47.3,30.17,SSE,148,8.1,8.1,58,0.00,CLR,,0.00,WeatherDisplay:10.37,2013-09-15 15:03:00,
2013-09-15 11:04:00,62.3,47.8,30.17,SSE,148,0.0,0.0,59,0.00,CLR,,0.00,WeatherDisplay:10.37,2013-09-15 15:04:00,
2013-09-15 11:06:00,62.3,47.3,30.17,SW,217,5.8,5.8,58,0.00,CLR,,0.00,WeatherDisplay:10.37,2013-09-15 15:06:00,
2013-09-15 11:08:00,62.3,47.3,30.17,SW,217,5.8,0.0,58,0.00,CLR,,0.00,WeatherDisplay:10.37,2013-09-15 15:08:00,
2013-09-15 11:09:00,62.4,47.9,30.17,SW,217,0.0,0.0,59,0.00,CLR,,0.00,WeatherDisplay:10.37,2013-09-15 15:09:00,
2013-09-15 11:11:00,62.4,47.4,30.17,SSW,208,1.0,1.3,58,0.00,CLR,,0.00,WeatherDisplay:10.37,2013-09-15 15:11:00,
2013-09-15 11:13:00,62.4,47.4,30.17,SW,234,2.3,2.3,58,0.00,CLR,,0.00,WeatherDisplay:10.37,2013-09-15 15:13:00,
2013-09-15 11:14:00,62.4,47.0,30.17,SW,226,2.3,0.0,57,0.00,CLR,,0.00,WeatherDisplay:10.37,2013-09-15 15:14:00,
2013-09-15 11:15:00,62.4,47.0,30.16,SW,226,2.3,0.0,57,0.00,CLR,,0.00,WeatherDisplay:10.37,2013-09-15 15:15:00,
2013-09-15 11:17:00,62.3,46.9,30.16,SW,226,0.0,0.0,57,0.00,CLR,,0.00,WeatherDisplay:10.37,2013-09-15 15:17:00,
2013-09-15 11:18:00,62.3,46.9,30.16,WSW,250,2.3,0.0,57,0.00,CLR,,0.00,WeatherDisplay:10.37,2013-09-15 15:18:00,
2013-09-15 11:19:00,62.4,47.0,30.16,WSW,250,1.1,1.1,57,0.00,CLR,,0.00,WeatherDisplay:10.37,2013-09-15 15:19:00,
2013-09-15 11:21:00,62.4,47.4,30.16,WSW,250,0.0,0.0,58,0.00,CLR,,0.00,WeatherDisplay:10.37,2013-09-15 15:21:00,
2013-09-15 11:22:00,62.4,47.4,30.16,WSW,251,0.0,0.0,58,0.00,CLR,,0.00,WeatherDisplay:10.37,2013-09-15 15:22:00,
2013-09-15 11:23:00,62.4,47.4,30.16,WSW,250,0.0,0.0,58,0.00,CLR,,0.00,WeatherDisplay:10.37,2013-09-15 15:23:00,
2013-09-15 11:24:00,62.6,47.1,30.16,WSW,247,0.0,0.0,57,0.00,CLR,,0.00,WeatherDisplay:10.37,2013-09-15 15:24:00,
2013-09-15 11:27:00,62.7,47.7,30.16,WSW,246,0.0,0.0,58,0.00,CLR,,0.00,WeatherDisplay:10.37,2013-09-15 15:27:00,
2013-09-15 11:29:00,63.1,48.1,30.16,WSW,246,0.0,0.0,58,0.00,CLR,,0.00,WeatherDisplay:10.37,2013-09-15 15:29:00,
2013-09-15 11:30:00,63.2,48.2,30.16,WSW,246,0.0,0.1,58,0.00,CLR,,0.00,WeatherDisplay:10.37,2013-09-15 15:30:00,
2013-09-15 11:32:00,63.5,47.5,30.16,West,265,4.6,4.6,56,0.00,CLR,,0.00,WeatherDisplay:10.37,2013-09-15 15:32:00,
2013-09-15 11:33:00,63.5,48.0,30.16,West,265,0.0,0.0,57,0.00,CLR,,0.00,WeatherDisplay:10.37,2013-09-15 15:33:00,
2013-09-15 11:34:00,63.7,48.2,30.15,West,264,0.0,0.0,57,0.00,CLR,,0.00,WeatherDisplay:10.37,2013-09-15 15:34:00,
2013-09-15 11:35:00,63.9,47.9,30.15,West,263,0.0,0.0,56,0.00,CLR,,0.00,WeatherDisplay:10.37,2013-09-15 15:35:00,
2013-09-15 11:37:00,63.9,47.9,30.15,West,270,5.8,5.8,56,0.00,CLR,,0.00,WeatherDisplay:10.37,2013-09-15 15:37:00,
2013-09-15 11:38:00,63.9,47.4,30.15,South,181,6.0,6.0,55,0.00,CLR,,0.00,WeatherDisplay:10.37,2013-09-15 15:38:00,
2013-09-15 11:39:00,63.9,47.4,30.15,West,261,6.0,6.0,55,0.00,CLR,,0.00,WeatherDisplay:10.37,2013-09-15 15:39:00,
2013-09-15 11:41:00,63.7,47.2,30.15,South,176,5.8,5.8,55,0.00,CLR,,0.00,WeatherDisplay:10.37,2013-09-15 15:41:00,
2013-09-15 11:42:00,63.7,47.2,30.15,South,176,5.8,0.0,55,0.00,CLR,,0.00,WeatherDisplay:10.37,2013-09-15 15:42:00,
2013-09-15 11:43:00,63.5,47.0,30.15,West,263,2.3,2.3,55,0.00,CLR,,0.00,WeatherDisplay:10.37,2013-09-15 15:43:00,
2013-09-15 11:45:00,63.5,47.0,30.15,WSW,256,0.0,0.0,55,0.00,CLR,,0.00,WeatherDisplay:10.37,2013-09-15 15:45:00,
2013-09-15 11:46:00,63.7,47.2,30.15,SW,216,1.1,0.0,55,0.00,CLR,,0.00,WeatherDisplay:10.37,2013-09-15 15:46:00,
2013-09-15 11:47:00,63.7,48.2,30.15,SW,220,0.0,0.0,57,0.00,CLR,,0.00,WeatherDisplay:10.37,2013-09-15 15:47:00,
2013-09-15 11:48:00,63.9,47.9,30.15,SW,219,0.0,0.0,56,0.00,CLR,,0.00,WeatherDisplay:10.37,2013-09-15 15:48:00,
2013-09-15 11:50:00,63.9,46.9,30.14,SW,219,0.0,0.0,54,0.00,CLR,,0.00,WeatherDisplay:10.37,2013-09-15 15:50:00,
2013-09-15 11:51:00,63.9,47.4,30.15,SSW,212,0.0,0.0,55,0.00,CLR,,0.00,WeatherDisplay:10.37,2013-09-15 15:51:00,
2013-09-15 11:52:00,63.9,46.9,30.15,SSW,212,0.0,1.0,54,0.00,CLR,,0.00,WeatherDisplay:10.37,2013-09-15 15:52:00,
2013-09-15 11:54:00,63.9,46.9,30.15,West,261,2.3,2.3,54,0.00,CLR,,0.00,WeatherDisplay:10.37,2013-09-15 15:54:00,
2013-09-15 11:55:00,63.9,46.9,30.15,WSW,258,4.6,4.6,54,0.00,CLR,,0.00,WeatherDisplay:10.37,2013-09-15 15:55:00,
2013-09-15 11:57:00,63.9,46.9,30.15,SSW,196,6.0,6.0,54,0.00,CLR,,0.00,WeatherDisplay:10.37,2013-09-15 15:57:00,
2013-09-15 11:59:00,63.9,47.4,30.15,SE,137,0.0,0.0,55,0.00,CLR,,0.00,WeatherDisplay:10.37,2013-09-15 15:59:00,
2013-09-15 12:00:00,63.9,46.9,30.15,SE,136,0.0,0.0,54,0.00,CLR,,0.00,WeatherDisplay:10.37,2013-09-15 16:00:00,
2013-09-15 12:02:00,63.9,46.9,30.14,SSW,210,2.3,2.3,54,0.00,CLR,,0.00,WeatherDisplay:10.37,2013-09-15 16:02:00,
2013-09-15 12:03:00,63.9,46.4,30.14,SW,219,2.3,2.3,53,0.00,CLR,,0.00,WeatherDisplay:10.37,2013-09-15 16:03:00,
2013-09-15 12:04:00,63.9,47.4,30.14,SW,219,0.0,0.0,55,0.00,CLR,,0.00,WeatherDisplay:10.37,2013-09-15 16:04:00,
2013-09-15 12:05:00,63.9,46.9,30.14,SW,219,0.0,0.0,54,0.00,CLR,,0.00,WeatherDisplay:10.37,2013-09-15 16:05:00,
2013-09-15 12:06:00,63.9,46.9,30.14,South,181,3.5,3.5,54,0.00,CLR,,0.00,WeatherDisplay:10.37,2013-09-15 16:06:00,
2013-09-15 12:07:00,64.0,47.5,30.14,South,181,0.0,0.1,55,0.00,CLR,,0.00,WeatherDisplay:10.37,2013-09-15 16:07:00,
2013-09-15 12:08:00,64.0,47.0,30.14,South,181,1.1,0.0,54,0.00,CLR,,0.00,WeatherDisplay:10.37,2013-09-15 16:08:00,
2013-09-15 12:09:00,64.0,47.5,30.14,South,181,0.0,0.0,55,0.00,CLR,,0.00,WeatherDisplay:10.37,2013-09-15 16:09:00,
2013-09-15 12:10:00,64.0,46.5,30.14,WSW,257,11.5,11.5,53,0.00,CLR,,0.00,WeatherDisplay:10.37,2013-09-15 16:10:00,
2013-09-15 12:11:00,64.2,47.2,30.14,WSW,257,11.5,11.5,54,0.00,CLR,,0.00,WeatherDisplay:10.37,2013-09-15 16:11:00,
2013-09-15 12:13:00,64.3,46.8,30.14,SSE,152,7.0,7.0,53,0.00,CLR,,0.00,WeatherDisplay:10.37,2013-09-15 16:13:00,
2013-09-15 12:14:00,64.5,47.0,30.14,SSE,152,6.9,6.9,53,0.00,CLR,,0.00,WeatherDisplay:10.37,2013-09-15 16:14:00,
2013-09-15 12:15:00,64.5,47.0,30.14,SSE,152,5.8,5.8,53,0.00,CLR,,0.00,WeatherDisplay:10.37,2013-09-15 16:15:00,
2013-09-15 12:17:00,64.5,47.0,30.14,SSE,155,3.5,3.5,53,0.00,CLR,,0.00,WeatherDisplay:10.37,2013-09-15 16:17:00,
2013-09-15 12:18:00,64.7,46.7,30.14,WSW,240,0.0,0.0,52,0.00,CLR,,0.00,WeatherDisplay:10.37,2013-09-15 16:18:00,
2013-09-15 12:19:00,64.7,47.2,30.14,WSW,240,0.0,0.0,53,0.00,CLR,,0.00,WeatherDisplay:10.37,2013-09-15 16:19:00,
2013-09-15 12:20:00,64.8,47.8,30.14,WSW,239,1.0,1.0,54,0.00,CLR,,0.00,WeatherDisplay:10.37,2013-09-15 16:20:00,
2013-09-15 12:22:00,65.0,47.9,30.14,SSE,167,5.0,5.0,54,0.00,CLR,,0.00,WeatherDisplay:10.37,2013-09-15 16:22:00,
2013-09-15 12:24:00,65.2,48.1,30.14,SW,233,4.6,4.6,54,0.00,CLR,,0.00,WeatherDisplay:10.37,2013-09-15 16:24:00,
2013-09-15 12:25:00,65.3,47.7,30.14,SW,229,2.3,2.3,53,0.00,CLR,,0.00,WeatherDisplay:10.37,2013-09-15 16:25:00,
2013-09-15 12:27:00,65.5,47.4,30.14,SW,229,0.0,0.0,52,0.00,CLR,,0.00,WeatherDisplay:10.37,2013-09-15 16:27:00,
2013-09-15 12:29:00,65.5,47.4,30.14,SW,229,0.0,0.0,52,0.00,CLR,,0.00,WeatherDisplay:10.37,2013-09-15 16:29:00,
2013-09-15 12:30:00,65.5,48.4,30.14,SW,229,0.0,0.0,54,0.00,CLR,,0.00,WeatherDisplay:10.37,2013-09-15 16:30:00,
2013-09-15 12:32:00,65.5,47.4,30.13,SSW,202,3.5,3.5,52,0.00,CLR,,0.00,WeatherDisplay:10.37,2013-09-15 16:32:00,
2013-09-15 12:34:00,65.3,47.2,30.13,South,174,4.6,4.6,52,0.00,CLR,,0.00,WeatherDisplay:10.37,2013-09-15 16:34:00,
2013-09-15 12:35:00,65.3,47.2,30.13,South,174,3.5,3.5,52,0.00,CLR,,0.00,WeatherDisplay:10.37,2013-09-15 16:35:00,
2013-09-15 12:38:00,64.7,46.7,30.13,SSE,165,0.0,0.0,52,0.00,CLR,,0.00,WeatherDisplay:10.37,2013-09-15 16:38:00,
2013-09-15 12:39:00,64.5,47.0,30.13,SSE,165,0.0,0.0,53,0.00,CLR,,0.00,WeatherDisplay:10.37,2013-09-15 16:39:00,
2013-09-15 12:40:00,64.5,47.0,30.13,SSE,165,0.0,0.0,53,0.00,CLR,,0.00,WeatherDisplay:10.37,2013-09-15 16:40:00,
2013-09-15 12:43:00,64.3,46.8,30.13,WNW,295,3.5,3.5,53,0.00,CLR,,0.00,WeatherDisplay:10.37,2013-09-15 16:43:00,
2013-09-15 12:44:00,64.2,46.2,30.13,WNW,289,3.5,3.5,52,0.00,CLR,,0.00,WeatherDisplay:10.37,2013-09-15 16:44:00,
2013-09-15 12:45:00,64.2,46.7,30.13,WSW,246,0.0,0.0,53,0.00,CLR,,0.00,WeatherDisplay:10.37,2013-09-15 16:45:00,
2013-09-15 12:48:00,64.0,46.0,30.13,SSW,210,0.0,0.0,52,0.00,CLR,,0.00,WeatherDisplay:10.37,2013-09-15 16:48:00,
2013-09-15 12:49:00,64.0,46.5,30.13,SSW,210,0.0,0.0,53,0.00,CLR,,0.00,WeatherDisplay:10.37,2013-09-15 16:49:00,
2013-09-15 12:50:00,63.9,46.9,30.13,SSW,210,0.0,0.0,54,0.00,CLR,,0.00,WeatherDisplay:10.37,2013-09-15 16:50:00,
2013-09-15 12:53:00,63.9,46.9,30.13,SSW,210,0.0,0.0,54,0.00,CLR,,0.00,WeatherDisplay:10.37,2013-09-15 16:53:00,
2013-09-15 12:55:00,63.9,47.4,30.13,SSW,210,0.0,0.0,55,0.00,CLR,,0.00,WeatherDisplay:10.37,2013-09-15 16:55:00,
2013-09-15 12:59:00,63.9,47.4,30.13,SSW,210,0.0,0.0,55,0.00,CLR,,0.00,WeatherDisplay:10.37,2013-09-15 16:59:00,
2013-09-15 13:00:00,63.9,47.4,30.13,SSW,210,0.0,0.0,55,0.00,CLR,,0.00,WeatherDisplay:10.37,2013-09-15 17:00:00,
2013-09-15 13:01:00,64.0,47.5,30.13,SSW,210,0.0,0.0,55,0.00,CLR,,0.00,WeatherDisplay:10.37,2013-09-15 17:01:00,
2013-09-15 13:04:00,64.2,47.7,30.13,SW,217,1.0,1.0,55,0.00,CLR,,0.00,WeatherDisplay:10.37,2013-09-15 17:04:00,
2013-09-15 13:05:00,64.2,47.7,30.13,SW,217,3.5,3.5,55,0.00,CLR,,0.00,WeatherDisplay:10.37,2013-09-15 17:05:00,
2013-09-15 13:06:00,64.2,47.7,30.12,SW,217,3.5,3.5,55,0.00,CLR,,0.00,WeatherDisplay:10.37,2013-09-15 17:06:00,
2013-09-15 13:07:00,64.3,48.3,30.12,SW,216,2.3,2.3,56,0.00,CLR,,0.00,WeatherDisplay:10.37,2013-09-15 17:07:00,
2013-09-15 13:10:00,64.3,48.3,30.12,SW,216,3.5,0.0,56,0.00,CLR,,0.00,WeatherDisplay:10.37,2013-09-15 17:10:00,
2013-09-15 13:11:00,64.3,48.3,30.12,SW,216,0.0,0.0,56,0.00,CLR,,0.00,WeatherDisplay:10.37,2013-09-15 17:11:00,
2013-09-15 13:12:00,64.3,47.8,30.12,SW,216,0.0,0.0,55,0.00,CLR,,0.00,WeatherDisplay:10.37,2013-09-15 17:12:00,
2013-09-15 13:15:00,64.7,47.7,30.12,SW,216,2.0,0.0,54,0.00,CLR,,0.00,WeatherDisplay:10.37,2013-09-15 17:15:00,
2013-09-15 13:16:00,64.7,47.7,30.12,SSW,213,3.5,3.5,54,0.00,CLR,,0.00,WeatherDisplay:10.37,2013-09-15 17:16:00,
2013-09-15 13:17:00,64.8,47.8,30.12,SSW,213,0.0,0.0,54,0.00,CLR,,0.00,WeatherDisplay:10.37,2013-09-15 17:17:00,
2013-09-15 13:20:00,65.0,47.4,30.12,West,267,4.6,4.6,53,0.00,CLR,,0.00,WeatherDisplay:10.37,2013-09-15 17:20:00,
2013-09-15 13:21:00,65.0,46.9,30.11,West,264,6.9,6.9,52,0.00,CLR,,0.00,WeatherDisplay:10.37,2013-09-15 17:21:00,
2013-09-15 13:22:00,65.0,46.9,30.11,West,265,6.9,6.9,52,0.00,CLR,,0.00,WeatherDisplay:10.37,2013-09-15 17:22:00,
2013-09-15 13:25:00,65.2,46.6,30.11,West,261,3.5,0.0,51,0.00,CLR,,0.00,WeatherDisplay:10.37,2013-09-15 17:25:00,
2013-09-15 13:26:00,65.2,47.1,30.11,West,261,0.0,0.0,52,0.00,CLR,,0.00,WeatherDisplay:10.37,2013-09-15 17:26:00,
2013-09-15 13:28:00,65.2,47.6,30.11,West,263,5.0,0.0,53,0.00,CLR,,0.00,WeatherDisplay:10.37,2013-09-15 17:28:00,
2013-09-15 13:30:00,65.2,47.6,30.12,West,263,1.1,0.0,53,0.00,CLR,,0.00,WeatherDisplay:10.37,2013-09-15 17:30:00,
2013-09-15 13:31:00,65.3,47.7,30.12,West,263,1.1,1.1,53,0.00,CLR,,0.00,WeatherDisplay:10.37,2013-09-15 17:31:00,
2013-09-15 13:33:00,65.3,48.2,30.11,West,260,1.1,0.0,54,0.00,CLR,,0.00,WeatherDisplay:10.37,2013-09-15 17:33:00,
2013-09-15 13:35:00,65.3,47.7,30.11,West,260,0.0,0.0,53,0.00,CLR,,0.00,WeatherDisplay:10.37,2013-09-15 17:35:00,
2013-09-15 13:36:00,65.3,48.2,30.11,West,260,0.0,0.0,54,0.00,CLR,,0.00,WeatherDisplay:10.37,2013-09-15 17:36:00,
2013-09-15 13:38:00,65.3,48.2,30.11,West,260,2.0,2.0,54,0.00,CLR,,0.00,WeatherDisplay:10.37,2013-09-15 17:38:00,
2013-09-15 13:40:00,65.3,47.7,30.11,SW,234,0.0,0.0,53,0.00,CLR,,0.00,WeatherDisplay:10.37,2013-09-15 17:40:00,
2013-09-15 13:41:00,65.3,48.2,30.11,SW,234,0.0,0.0,54,0.00,CLR,,0.00,WeatherDisplay:10.37,2013-09-15 17:41:00,
2013-09-15 13:43:00,65.5,47.9,30.11,SW,234,0.0,0.0,53,0.00,CLR,,0.00,WeatherDisplay:10.37,2013-09-15 17:43:00,
2013-09-15 13:45:00,65.6,48.5,30.11,SW,234,0.0,0.0,54,0.00,CLR,,0.00,WeatherDisplay:10.37,2013-09-15 17:45:00,
2013-09-15 13:46:00,65.6,48.5,30.11,SW,234,0.0,0.0,54,0.00,CLR,,0.00,WeatherDisplay:10.37,2013-09-15 17:46:00,
2013-09-15 13:47:00,65.6,48.5,30.11,WSW,250,3.0,3.0,54,0.00,CLR,,0.00,WeatherDisplay:10.37,2013-09-15 17:47:00,
2013-09-15 13:48:00,65.8,47.7,30.11,West,263,6.0,6.0,52,0.00,CLR,,0.00,WeatherDisplay:10.37,2013-09-15 17:48:00,
2013-09-15 13:50:00,66.0,47.9,30.11,WSW,256,2.3,2.3,52,0.00,CLR,,0.00,WeatherDisplay:10.37,2013-09-15 17:50:00,
2013-09-15 13:51:00,66.0,47.3,30.11,West,265,3.5,3.5,51,0.00,CLR,,0.00,WeatherDisplay:10.37,2013-09-15 17:51:00,
2013-09-15 13:52:00,66.1,47.4,30.11,West,265,4.6,4.6,51,0.00,CLR,,0.00,WeatherDisplay:10.37,2013-09-15 17:52:00,
2013-09-15 13:53:00,66.3,47.6,30.11,West,265,0.0,0.0,51,0.00,CLR,,0.00,WeatherDisplay:10.37,2013-09-15 17:53:00,
2013-09-15 13:55:00,66.6,47.9,30.11,West,260,0.0,0.0,51,0.00,CLR,,0.00,WeatherDisplay:10.37,2013-09-15 17:55:00,
2013-09-15 13:57:00,66.8,47.6,30.11,West,260,0.0,0.0,50,0.00,CLR,,0.00,WeatherDisplay:10.37,2013-09-15 17:57:00,
2013-09-15 13:59:00,66.9,47.6,30.11,West,260,0.0,0.0,50,0.00,CLR,,0.00,WeatherDisplay:10.37,2013-09-15 17:59:00,
2013-09-15 14:01:00,66.9,47.1,30.11,West,272,8.1,8.1,49,0.00,CLR,,0.00,WeatherDisplay:10.37,2013-09-15 18:01:00,
2013-09-15 14:02:00,66.8,46.5,30.11,West,260,8.1,8.1,48,0.00,CLR,,0.00,WeatherDisplay:10.37,2013-09-15 18:02:00,
2013-09-15 14:03:00,66.8,46.5,30.11,West,260,8.1,8.1,48,0.00,CLR,,0.00,WeatherDisplay:10.37,2013-09-15 18:03:00,
2013-09-15 14:04:00,66.6,46.3,30.11,WSW,253,6.9,6.9,48,0.00,CLR,,0.00,WeatherDisplay:10.37,2013-09-15 18:04:00,
2013-09-15 14:06:00,66.8,47.6,30.11,WSW,253,0.0,0.0,50,0.00,CLR,,0.00,WeatherDisplay:10.37,2013-09-15 18:06:00,
2013-09-15 14:07:00,66.9,47.6,30.11,WSW,251,0.0,0.0,50,0.00,CLR,,0.00,WeatherDisplay:10.37,2013-09-15 18:07:00,
2013-09-15 14:08:00,66.9,47.6,30.11,WSW,251,0.0,0.0,50,0.00,CLR,,0.00,WeatherDisplay:10.37,2013-09-15 18:08:00,
2013-09-15 14:09:00,66.9,47.6,30.11,WSW,251,0.0,0.0,50,0.00,CLR,,0.00,WeatherDisplay:10.37,2013-09-15 18:09:00,
2013-09-15 14:11:00,67.1,47.3,30.11,WSW,251,0.0,0.0,49,0.00,CLR,,0.00,WeatherDisplay:10.37,2013-09-15 18:11:00,
2013-09-15 14:12:00,67.1,47.3,30.11,WSW,251,3.0,3.0,49,0.00,CLR,,0.00,WeatherDisplay:10.37,2013-09-15 18:12:00,
2013-09-15 14:13:00,67.1,47.3,30.11,WSW,251,3.5,3.5,49,0.00,CLR,,0.00,WeatherDisplay:10.37,2013-09-15 18:13:00,
2013-09-15 14:14:00,67.3,47.5,30.11,WSW,251,0.0,0.0,49,0.00,CLR,,0.00,WeatherDisplay:10.37,2013-09-15 18:14:00,
2013-09-15 14:16:00,67.3,46.9,30.11,SSW,213,0.0,0.0,48,0.00,CLR,,0.00,WeatherDisplay:10.37,2013-09-15 18:16:00,
2013-09-15 14:17:00,67.4,48.1,30.11,SW,223,0.0,0.0,50,0.00,CLR,,0.00,WeatherDisplay:10.37,2013-09-15 18:17:00,
2013-09-15 14:18:00,67.4,47.6,30.11,SW,223,0.0,0.0,49,0.00,CLR,,0.00,WeatherDisplay:10.37,2013-09-15 18:18:00,
2013-09-15 14:20:00,67.6,47.8,30.10,ESE,114,3.5,3.5,49,0.00,CLR,,0.00,WeatherDisplay:10.37,2013-09-15 18:20:00,
2013-09-15 14:21:00,67.8,48.5,30.10,WNW,285,3.5,3.5,50,0.00,CLR,,0.00,WeatherDisplay:10.37,2013-09-15 18:21:00,
2013-09-15 14:22:00,67.8,48.5,30.10,WNW,285,4.6,0.0,50,0.00,CLR,,0.00,WeatherDisplay:10.37,2013-09-15 18:22:00,
2013-09-15 14:23:00,67.9,48.0,30.10,WNW,285,0.0,0.0,49,0.00,CLR,,0.00,WeatherDisplay:10.37,2013-09-15 18:23:00,
2013-09-15 14:25:00,68.1,48.2,30.10,West,277,6.0,6.0,49,0.00,CLR,,0.00,WeatherDisplay:10.37,2013-09-15 18:25:00,
2013-09-15 14:27:00,68.1,47.7,30.10,SE,130,8.1,8.1,48,0.00,CLR,,0.00,WeatherDisplay:10.37,2013-09-15 18:27:00,
2013-09-15 14:28:00,68.1,47.7,30.10,SW,216,3.5,3.5,48,0.00,CLR,,0.00,WeatherDisplay:10.37,2013-09-15 18:28:00,
2013-09-15 14:29:00,68.1,47.1,30.10,SE,138,4.6,4.6,47,0.00,CLR,,0.00,WeatherDisplay:10.37,2013-09-15 18:29:00,
2013-09-15 14:30:00,67.9,47.5,30.10,South,171,2.3,0.0,48,0.00,CLR,,0.00,WeatherDisplay:10.37,2013-09-15 18:30:00,
2013-09-15 14:32:00,67.9,47.5,30.10,South,171,0.0,0.0,48,0.00,CLR,,0.00,WeatherDisplay:10.37,2013-09-15 18:32:00,
2013-09-15 14:33:00,67.9,46.9,30.10,South,171,1.1,0.0,47,0.00,CLR,,0.00,WeatherDisplay:10.37,2013-09-15 18:33:00,
2013-09-15 14:34:00,67.9,46.9,30.10,WNW,282,4.0,4.0,47,0.00,CLR,,0.00,WeatherDisplay:10.37,2013-09-15 18:34:00,
2013-09-15 14:36:00,67.6,46.6,30.10,South,188,4.6,4.6,47,0.00,CLR,,0.00,WeatherDisplay:10.37,2013-09-15 18:36:00,
2013-09-15 14:37:00,67.4,47.0,30.10,South,188,3.5,3.5,48,0.00,CLR,,0.00,WeatherDisplay:10.37,2013-09-15 18:37:00,
2013-09-15 14:38:00,67.4,47.0,30.10,South,188,3.5,3.5,48,0.00,CLR,,0.00,WeatherDisplay:10.37,2013-09-15 18:38:00,
2013-09-15 14:39:00,67.1,47.3,30.10,South,185,0.0,0.0,49,0.00,CLR,,0.00,WeatherDisplay:10.37,2013-09-15 18:39:00,
2013-09-15 14:41:00,66.9,47.1,30.10,WSW,243,3.5,3.5,49,0.00,CLR,,0.00,WeatherDisplay:10.37,2013-09-15 18:41:00,
2013-09-15 14:43:00,66.9,47.1,30.10,West,261,3.5,3.5,49,0.00,CLR,,0.00,WeatherDisplay:10.37,2013-09-15 18:43:00,
2013-09-15 14:44:00,66.9,48.2,30.10,SSE,150,6.0,6.0,51,0.00,CLR,,0.00,WeatherDisplay:10.37,2013-09-15 18:44:00,
2013-09-15 14:46:00,66.8,47.6,30.10,WSW,241,6.9,6.9,50,0.00,CLR,,0.00,WeatherDisplay:10.37,2013-09-15 18:46:00,
2013-09-15 14:48:00,66.6,47.9,30.10,WSW,243,3.5,3.5,51,0.00,CLR,,0.00,WeatherDisplay:10.37,2013-09-15 18:48:00,
2013-09-15 14:49:00,66.6,47.9,30.10,WSW,258,4.6,4.6,51,0.00,CLR,,0.00,WeatherDisplay:10.37,2013-09-15 18:49:00,
2013-09-15 14:50:00,66.8,48.1,30.10,WSW,258,2.3,2.3,51,0.00,CLR,,0.00,WeatherDisplay:10.37,2013-09-15 18:50:00,
2013-09-15 14:51:00,66.8,48.1,30.10,West,260,1.1,1.1,51,0.00,CLR,,0.00,WeatherDisplay:10.37,2013-09-15 18:51:00,
2013-09-15 14:53:00,66.8,47.0,30.10,WSW,257,1.1,0.0,49,0.00,CLR,,0.00,WeatherDisplay:10.37,2013-09-15 18:53:00,
2013-09-15 14:54:00,66.8,48.1,30.10,West,260,1.0,1.0,51,0.00,CLR,,0.00,WeatherDisplay:10.37,2013-09-15 18:54:00,
2013-09-15 14:56:00,66.8,47.6,30.10,West,267,4.6,4.6,50,0.00,CLR,,0.00,WeatherDisplay:10.37,2013-09-15 18:56:00,
2013-09-15 14:57:00,66.8,47.6,30.10,WSW,251,0.0,0.0,50,0.00,CLR,,0.00,WeatherDisplay:10.37,2013-09-15 18:57:00,
2013-09-15 14:58:00,66.8,47.6,30.10,WSW,251,0.0,0.0,50,0.00,CLR,,0.00,WeatherDisplay:10.37,2013-09-15 18:58:00,
2013-09-15 14:59:00,66.8,47.6,30.10,WSW,251,0.0,0.0,50,0.00,CLR,,0.00,WeatherDisplay:10.37,2013-09-15 18:59:00,
2013-09-15 15:00:00,66.6,47.4,30.10,WSW,253,0.0,0.0,50,0.00,CLR,,0.00,WeatherDisplay:10.37,2013-09-15 19:00:00,
2013-09-15 15:01:00,66.6,47.4,30.10,WSW,253,0.0,0.0,50,0.00,CLR,,0.00,WeatherDisplay:10.37,2013-09-15 19:01:00,
2013-09-15 15:03:00,66.6,46.8,30.10,WSW,251,1.0,1.0,49,0.00,CLR,,0.00,WeatherDisplay:10.37,2013-09-15 19:03:00,
2013-09-15 15:04:00,66.4,47.7,30.10,WSW,251,0.0,0.0,51,0.00,CLR,,0.00,WeatherDisplay:10.37,2013-09-15 19:04:00,
2013-09-15 15:05:00,66.4,47.7,30.10,WSW,251,0.0,0.0,51,0.00,CLR,,0.00,WeatherDisplay:10.37,2013-09-15 19:05:00,
2013-09-15 15:06:00,66.4,47.7,30.10,WSW,251,0.0,0.0,51,0.00,CLR,,0.00,WeatherDisplay:10.37,2013-09-15 19:06:00,
2013-09-15 15:08:00,66.4,47.7,30.10,WSW,251,0.0,0.0,51,0.00,CLR,,0.00,WeatherDisplay:10.37,2013-09-15 19:08:00,
2013-09-15 15:09:00,66.4,47.7,30.10,WSW,251,0.0,0.0,51,0.00,CLR,,0.00,WeatherDisplay:10.37,2013-09-15 19:09:00,
2013-09-15 15:10:00,66.4,47.7,30.10,SW,236,0.0,0.0,51,0.00,CLR,,0.00,WeatherDisplay:10.37,2013-09-15 19:10:00,
2013-09-15 15:11:00,66.3,47.6,30.10,SW,236,0.0,0.0,51,0.00,CLR,,0.00,WeatherDisplay:10.37,2013-09-15 19:11:00,
2013-09-15 15:13:00,66.1,47.4,30.09,SSW,193,4.6,4.6,51,0.00,CLR,,0.00,WeatherDisplay:10.37,2013-09-15 19:13:00,
2013-09-15 15:14:00,66.0,47.9,30.09,South,179,5.8,5.8,52,0.00,CLR,,0.00,WeatherDisplay:10.37,2013-09-15 19:14:00,
2013-09-15 15:15:00,65.6,47.5,30.10,South,181,3.5,3.5,52,0.00,CLR,,0.00,WeatherDisplay:10.37,2013-09-15 19:15:00,
2013-09-15 15:16:00,65.5,48.4,30.10,South,181,3.5,0.0,54,0.00,CLR,,0.00,WeatherDisplay:10.37,2013-09-15 19:16:00,
2013-09-15 15:18:00,65.5,48.4,30.10,South,176,3.5,3.5,54,0.00,CLR,,0.00,WeatherDisplay:10.37,2013-09-15 19:18:00,
2013-09-15 15:19:00,65.3,48.2,30.10,South,176,0.0,0.0,54,0.00,CLR,,0.00,WeatherDisplay:10.37,2013-09-15 19:19:00,
2013-09-15 15:20:00,65.2,48.1,30.10,South,176,0.0,0.0,54,0.00,CLR,,0.00,WeatherDisplay:10.37,2013-09-15 19:20:00,
2013-09-15 15:21:00,65.2,48.1,30.10,South,176,0.0,0.0,54,0.00,CLR,,0.00,WeatherDisplay:10.37,2013-09-15 19:21:00,
2013-09-15 15:22:00,65.2,48.6,30.10,South,176,0.0,0.0,55,0.00,CLR,,0.00,WeatherDisplay:10.37,2013-09-15 19:22:00,
2013-09-15 15:23:00,65.2,48.6,30.10,South,179,0.0,0.0,55,0.00,CLR,,0.00,WeatherDisplay:10.37,2013-09-15 19:23:00,
2013-09-15 15:24:00,65.2,48.1,30.10,South,176,0.0,0.0,54,0.00,CLR,,0.00,WeatherDisplay:10.37,2013-09-15 19:24:00,
2013-09-15 15:25:00,65.2,48.6,30.09,South,176,0.0,0.0,55,0.00,CLR,,0.00,WeatherDisplay:10.37,2013-09-15 19:25:00,
2013-09-15 15:26:00,65.2,48.6,30.09,SSE,147,2.0,2.0,55,0.00,CLR,,0.00,WeatherDisplay:10.37,2013-09-15 19:26:00,
2013-09-15 15:27:00,65.2,48.6,30.09,SSE,147,4.6,4.6,55,0.00,CLR,,0.00,WeatherDisplay:10.37,2013-09-15 19:27:00,
2013-09-15 15:28:00,65.0,47.9,30.09,SSE,147,2.3,2.3,54,0.00,CLR,,0.00,WeatherDisplay:10.37,2013-09-15 19:28:00,
2013-09-15 15:30:00,65.0,47.9,30.09,SSE,147,0.0,0.0,54,0.00,CLR,,0.00,WeatherDisplay:10.37,2013-09-15 19:30:00,
2013-09-15 15:31:00,65.2,48.1,30.09,SSE,147,0.0,0.0,54,0.00,CLR,,0.00,WeatherDisplay:10.37,2013-09-15 19:31:00,
2013-09-15 15:32:00,65.2,48.6,30.09,SSE,147,0.0,0.0,55,0.00,CLR,,0.00,WeatherDisplay:10.37,2013-09-15 19:32:00,
2013-09-15 15:33:00,65.2,48.1,30.09,SSE,147,0.0,0.0,54,0.00,CLR,,0.00,WeatherDisplay:10.37,2013-09-15 19:33:00,
2013-09-15 15:35:00,65.2,49.1,30.09,SSE,147,0.0,0.0,56,0.00,CLR,,0.00,WeatherDisplay:10.37,2013-09-15 19:35:00,
2013-09-15 15:36:00,65.2,48.1,30.09,SW,215,2.3,2.3,54,0.00,CLR,,0.00,WeatherDisplay:10.37,2013-09-15 19:36:00,
2013-09-15 15:37:00,65.3,48.2,30.09,SW,215,0.0,0.0,54,0.00,CLR,,0.00,WeatherDisplay:10.37,2013-09-15 19:37:00,
2013-09-15 15:38:00,65.3,48.2,30.10,SW,215,0.0,0.0,54,0.00,CLR,,0.00,WeatherDisplay:10.37,2013-09-15 19:38:00,
2013-09-15 15:41:00,65.6,48.0,30.09,SSW,210,3.5,3.5,53,0.00,CLR,,0.00,WeatherDisplay:10.37,2013-09-15 19:41:00,
2013-09-15 15:42:00,65.6,47.5,30.09,SSW,210,3.5,3.5,52,0.00,CLR,,0.00,WeatherDisplay:10.37,2013-09-15 19:42:00,
2013-09-15 15:43:00,65.6,47.5,30.09,SSW,210,3.5,3.5,52,0.00,CLR,,0.00,WeatherDisplay:10.37,2013-09-15 19:43:00,
2013-09-15 15:46:00,65.8,46.6,30.09,SSW,208,1.1,1.1,50,0.00,CLR,,0.00,WeatherDisplay:10.37,2013-09-15 19:46:00,
2013-09-15 15:47:00,66.0,47.3,30.09,SSW,208,0.0,0.1,51,0.00,CLR,,0.00,WeatherDisplay:10.37,2013-09-15 19:47:00,
2013-09-15 15:48:00,66.0,47.3,30.09,SSW,208,1.1,1.1,51,0.00,CLR,,0.00,WeatherDisplay:10.37,2013-09-15 19:48:00,
2013-09-15 15:51:00,66.0,46.8,30.09,South,174,6.9,6.9,50,0.00,CLR,,0.00,WeatherDisplay:10.37,2013-09-15 19:51:00,
2013-09-15 15:52:00,66.0,46.8,30.09,SSE,155,6.9,6.9,50,0.00,CLR,,0.00,WeatherDisplay:10.37,2013-09-15 19:52:00,
2013-09-15 15:53:00,66.0,46.8,30.09,SSE,155,3.5,3.5,50,0.00,CLR,,0.00,WeatherDisplay:10.37,2013-09-15 19:53:00,
2013-09-15 15:54:00,65.8,47.7,30.09,South,174,3.5,3.5,52,0.00,CLR,,0.00,WeatherDisplay:10.37,2013-09-15 19:54:00,
2013-09-15 15:56:00,65.8,46.6,30.09,South,184,0.0,0.0,50,0.00,CLR,,0.00,WeatherDisplay:10.37,2013-09-15 19:56:00,
2013-09-15 15:57:00,65.8,47.2,30.09,South,184,0.0,0.0,51,0.00,CLR,,0.00,WeatherDisplay:10.37,2013-09-15 19:57:00,
2013-09-15 15:58:00,65.8,47.2,30.09,South,184,2.3,2.3,51,0.00,CLR,,0.00,WeatherDisplay:10.37,2013-09-15 19:58:00,
2013-09-15 15:59:00,65.8,46.1,30.09,SSE,152,10.4,10.4,49,0.00,CLR,,0.00,WeatherDisplay:10.37,2013-09-15 19:59:00,
2013-09-15 16:01:00,65.5,46.4,30.09,SE,134,3.5,3.5,50,0.00,CLR,,0.00,WeatherDisplay:10.37,2013-09-15 20:01:00,
2013-09-15 16:02:00,65.5,46.4,30.09,SE,134,5.8,5.8,50,0.00,CLR,,0.00,WeatherDisplay:10.37,2013-09-15 20:02:00,
2013-09-15 16:03:00,65.5,46.4,30.09,SE,136,2.3,2.3,50,0.00,CLR,,0.00,WeatherDisplay:10.37,2013-09-15 20:03:00,
2013-09-15 16:04:00,65.3,46.2,30.09,WSW,244,3.5,3.5,50,0.00,CLR,,0.00,WeatherDisplay:10.37,2013-09-15 20:04:00,
2013-09-15 16:07:00,65.2,47.1,30.09,WSW,244,0.0,0.0,52,0.00,CLR,,0.00,WeatherDisplay:10.37,2013-09-15 20:07:00,
2013-09-15 16:08:00,65.2,46.6,30.09,WSW,244,0.0,0.0,51,0.00,CLR,,0.00,WeatherDisplay:10.37,2013-09-15 20:08:00,
2013-09-15 16:09:00,65.2,47.1,30.09,WSW,244,0.0,0.1,52,0.00,CLR,,0.00,WeatherDisplay:10.37,2013-09-15 20:09:00,
2013-09-15 16:12:00,65.0,45.9,30.09,SSW,209,3.5,3.5,50,0.00,CLR,,0.00,WeatherDisplay:10.37,2013-09-15 20:12:00,
2013-09-15 16:13:00,65.0,46.4,30.09,SSW,209,3.5,3.5,51,0.00,CLR,,0.00,WeatherDisplay:10.37,2013-09-15 20:13:00,
2013-09-15 16:14:00,65.0,46.4,30.09,SSW,209,0.0,0.0,51,0.00,CLR,,0.00,WeatherDisplay:10.37,2013-09-15 20:14:00,
2013-09-15 16:17:00,64.8,46.2,30.09,SSW,209,0.0,0.0,51,0.00,CLR,,0.00,WeatherDisplay:10.37,2013-09-15 20:17:00,
2013-09-15 16:18:00,64.8,46.2,30.09,SSW,209,0.0,0.0,51,0.00,CLR,,0.00,WeatherDisplay:10.37,2013-09-15 20:18:00,
2013-09-15 16:19:00,64.8,46.2,30.09,SSW,209,0.0,0.0,51,0.00,CLR,,0.00,WeatherDisplay:10.37,2013-09-15 20:19:00,
2013-09-15 16:22:00,64.7,46.7,30.09,SSW,210,0.0,0.0,52,0.00,CLR,,0.00,WeatherDisplay:10.37,2013-09-15 20:22:00,
2013-09-15 16:23:00,64.7,46.7,30.09,SSW,210,0.0,0.0,52,0.00,CLR,,0.00,WeatherDisplay:10.37,2013-09-15 20:23:00,
2013-09-15 16:24:00,64.7,47.2,30.09,SW,217,3.5,3.5,53,0.00,CLR,,0.00,WeatherDisplay:10.37,2013-09-15 20:24:00,
2013-09-15 16:25:00,64.7,46.7,30.09,SW,217,3.5,3.5,52,0.00,CLR,,0.00,WeatherDisplay:10.37,2013-09-15 20:25:00,
2013-09-15 16:27:00,64.7,47.2,30.09,SW,217,0.0,0.0,53,0.00,CLR,,0.00,WeatherDisplay:10.37,2013-09-15 20:27:00,
2013-09-15 16:28:00,64.7,47.2,30.09,SW,217,0.0,0.0,53,0.00,CLR,,0.00,WeatherDisplay:10.37,2013-09-15 20:28:00,
2013-09-15 16:29:00,64.5,47.0,30.09,SW,217,2.3,2.3,53,0.00,CLR,,0.00,WeatherDisplay:10.37,2013-09-15 20:29:00,
2013-09-15 16:30:00,64.5,47.0,30.09,SW,217,2.3,2.3,53,0.00,CLR,,0.00,WeatherDisplay:10.37,2013-09-15 20:30:00,
2013-09-15 16:33:00,64.5,47.5,30.09,SW,217,0.0,0.0,54,0.00,CLR,,0.00,WeatherDisplay:10.37,2013-09-15 20:33:00,
2013-09-15 16:35:00,64.5,48.0,30.09,SW,217,0.0,0.0,55,0.00,CLR,,0.00,WeatherDisplay:10.37,2013-09-15 20:35:00,
2013-09-15 16:36:00,64.5,47.5,30.09,SW,217,0.0,0.0,54,0.00,CLR,,0.00,WeatherDisplay:10.37,2013-09-15 20:36:00,
2013-09-15 16:38:00,64.5,48.0,30.09,SW,217,0.0,0.0,55,0.00,CLR,,0.00,WeatherDisplay:10.37,2013-09-15 20:38:00,
2013-09-15 16:40:00,64.5,48.0,30.09,SW,217,0.0,0.0,55,0.00,CLR,,0.00,WeatherDisplay:10.37,2013-09-15 20:40:00,
2013-09-15 16:41:00,64.5,47.5,30.09,SW,217,0.0,0.0,54,0.00,CLR,,0.00,WeatherDisplay:10.37,2013-09-15 20:41:00,
2013-09-15 16:42:00,64.5,48.0,30.09,SW,217,0.0,0.0,55,0.00,CLR,,0.00,WeatherDisplay:10.37,2013-09-15 20:42:00,
2013-09-15 16:43:00,64.5,47.5,30.09,SW,217,0.0,0.0,54,0.00,CLR,,0.00,WeatherDisplay:10.37,2013-09-15 20:43:00,
2013-09-15 16:44:00,64.5,47.5,30.09,SW,217,0.0,0.0,54,0.00,CLR,,0.00,WeatherDisplay:10.37,2013-09-15 20:44:00,
2013-09-15 16:45:00,64.5,47.5,30.09,SW,217,0.0,0.0,54,0.00,CLR,,0.00,WeatherDisplay:10.37,2013-09-15 20:45:00,
2013-09-15 16:47:00,64.5,48.0,30.09,SW,217,0.0,0.0,55,0.00,CLR,,0.00,WeatherDisplay:10.37,2013-09-15 20:47:00,
2013-09-15 16:48:00,64.5,48.0,30.09,SW,217,0.0,0.0,55,0.00,CLR,,0.00,WeatherDisplay:10.37,2013-09-15 20:48:00,
2013-09-15 16:50:00,64.5,48.0,30.09,SW,217,0.0,0.0,55,0.00,CLR,,0.00,WeatherDisplay:10.37,2013-09-15 20:50:00,
2013-09-15 16:52:00,64.5,47.5,30.09,SW,217,0.0,0.0,54,0.00,CLR,,0.00,WeatherDisplay:10.37,2013-09-15 20:52:00,
2013-09-15 16:53:00,64.5,48.0,30.09,SW,219,0.0,0.0,55,0.00,CLR,,0.00,WeatherDisplay:10.37,2013-09-15 20:53:00,
2013-09-15 16:55:00,64.5,48.0,30.09,SW,217,0.0,0.0,55,0.00,CLR,,0.00,WeatherDisplay:10.37,2013-09-15 20:55:00,
2013-09-15 16:56:00,64.5,48.0,30.09,SW,219,0.0,0.0,55,0.00,CLR,,0.00,WeatherDisplay:10.37,2013-09-15 20:56:00,
2013-09-15 16:57:00,64.5,48.4,30.09,SW,219,0.0,0.0,56,0.00,CLR,,0.00,WeatherDisplay:10.37,2013-09-15 20:57:00,
2013-09-15 16:58:00,64.5,48.4,30.09,SW,217,0.0,0.0,56,0.00,CLR,,0.00,WeatherDisplay:10.37,2013-09-15 20:58:00,
2013-09-15 16:59:00,64.5,48.4,30.10,SW,219,0.0,0.0,56,0.00,CLR,,0.00,WeatherDisplay:10.37,2013-09-15 20:59:00,
2013-09-15 17:00:00,64.3,48.3,30.10,SW,217,0.0,0.0,56,0.00,CLR,,0.00,WeatherDisplay:10.37,2013-09-15 21:00:00,
2013-09-15 17:02:00,64.3,48.3,30.10,SW,217,0.0,0.0,56,0.00,CLR,,0.00,WeatherDisplay:10.37,2013-09-15 21:02:00,
2013-09-15 17:03:00,64.3,48.3,30.09,SW,217,0.0,0.0,56,0.00,CLR,,0.00,WeatherDisplay:10.37,2013-09-15 21:03:00,
2013-09-15 17:04:00,64.3,48.3,30.09,SW,217,0.0,0.0,56,0.00,CLR,,0.00,WeatherDisplay:10.37,2013-09-15 21:04:00,
2013-09-15 17:05:00,64.3,48.7,30.09,SW,219,0.0,0.0,57,0.00,CLR,,0.00,WeatherDisplay:10.37,2013-09-15 21:05:00,
2013-09-15 17:08:00,64.3,49.2,30.09,SW,217,0.0,0.0,58,0.00,CLR,,0.00,WeatherDisplay:10.37,2013-09-15 21:08:00,
2013-09-15 17:09:00,64.2,49.6,30.09,SW,217,0.0,0.0,59,0.00,CLR,,0.00,WeatherDisplay:10.37,2013-09-15 21:09:00,
2013-09-15 17:10:00,64.2,49.6,30.08,SW,217,0.0,0.0,59,0.00,CLR,,0.00,WeatherDisplay:10.37,2013-09-15 21:10:00,
2013-09-15 17:11:00,64.0,49.4,30.08,SW,217,0.0,0.0,59,0.00,CLR,,0.00,WeatherDisplay:10.37,2013-09-15 21:11:00,
2013-09-15 17:13:00,63.9,49.7,30.08,SW,217,0.0,0.0,60,0.00,CLR,,0.00,WeatherDisplay:10.37,2013-09-15 21:13:00,
2013-09-15 17:14:00,63.9,50.2,30.09,SW,217,0.0,0.0,61,0.00,CLR,,0.00,WeatherDisplay:10.37,2013-09-15 21:14:00,
2013-09-15 17:16:00,63.9,50.6,30.09,SW,217,0.0,0.0,62,0.00,CLR,,0.00,WeatherDisplay:10.37,2013-09-15 21:16:00,
2013-09-15 17:19:00,63.7,50.4,30.09,SW,217,0.0,0.0,62,0.00,CLR,,0.00,WeatherDisplay:10.37,2013-09-15 21:19:00,
2013-09-15 17:20:00,63.7,50.9,30.09,SW,217,0.0,0.0,63,0.00,CLR,,0.00,WeatherDisplay:10.37,2013-09-15 21:20:00,
2013-09-15 17:21:00,63.7,50.4,30.09,SW,217,0.0,0.0,62,0.00,CLR,,0.00,WeatherDisplay:10.37,2013-09-15 21:21:00,
2013-09-15 17:24:00,63.7,50.4,30.09,SW,217,0.0,0.0,62,0.00,CLR,,0.00,WeatherDisplay:10.37,2013-09-15 21:24:00,
2013-09-15 17:25:00,63.9,51.1,30.09,SW,217,0.0,0.0,63,0.00,CLR,,0.00,WeatherDisplay:10.37,2013-09-15 21:25:00,
2013-09-15 17:26:00,63.9,50.2,30.09,SW,219,0.0,0.0,61,0.00,CLR,,0.00,WeatherDisplay:10.37,2013-09-15 21:26:00,
2013-09-15 17:29:00,63.9,50.2,30.09,SW,217,0.0,0.0,61,0.00,CLR,,0.00,WeatherDisplay:10.37,2013-09-15 21:29:00,
2013-09-15 17:30:00,63.9,50.2,30.09,SW,217,0.0,0.0,61,0.00,CLR,,0.00,WeatherDisplay:10.37,2013-09-15 21:30:00,
2013-09-15 17:31:00,63.9,50.2,30.09,SW,217,0.0,0.0,61,0.00,CLR,,0.00,WeatherDisplay:10.37,2013-09-15 21:31:00,
2013-09-15 17:32:00,63.9,50.2,30.09,SW,217,0.0,0.0,61,0.00,CLR,,0.00,WeatherDisplay:10.37,2013-09-15 21:32:00,
2013-09-15 17:34:00,63.9,50.2,30.09,SW,219,0.0,0.0,61,0.00,CLR,,0.00,WeatherDisplay:10.37,2013-09-15 21:34:00,
2013-09-15 17:35:00,63.9,50.2,30.09,SW,219,0.0,0.0,61,0.00,CLR,,0.00,WeatherDisplay:10.37,2013-09-15 21:35:00,
2013-09-15 17:36:00,63.9,50.2,30.09,SW,219,0.0,0.0,61,0.00,CLR,,0.00,WeatherDisplay:10.37,2013-09-15 21:36:00,
2013-09-15 17:37:00,63.9,50.2,30.09,SW,219,0.0,0.0,61,0.00,CLR,,0.00,WeatherDisplay:10.37,2013-09-15 21:37:00,
2013-09-15 17:39:00,63.9,50.2,30.09,SW,219,0.0,0.0,61,0.00,CLR,,0.00,WeatherDisplay:10.37,2013-09-15 21:39:00,
2013-09-15 17:41:00,63.9,49.7,30.09,SW,219,0.0,0.0,60,0.00,CLR,,0.00,WeatherDisplay:10.37,2013-09-15 21:41:00,
2013-09-15 17:42:00,64.0,49.8,30.09,SW,219,0.0,0.0,60,0.00,CLR,,0.00,WeatherDisplay:10.37,2013-09-15 21:42:00,
2013-09-15 17:45:00,64.0,50.7,30.09,SW,219,0.0,0.0,62,0.00,CLR,,0.00,WeatherDisplay:10.37,2013-09-15 21:45:00,
2013-09-15 17:46:00,64.0,50.7,30.09,SW,219,0.0,0.0,62,0.00,CLR,,0.00,WeatherDisplay:10.37,2013-09-15 21:46:00,
2013-09-15 17:47:00,64.2,50.5,30.09,SW,217,0.0,0.0,61,0.00,CLR,,0.00,WeatherDisplay:10.37,2013-09-15 21:47:00,
2013-09-15 17:50:00,64.2,50.0,30.09,SW,217,0.0,0.0,60,0.00,CLR,,0.00,WeatherDisplay:10.37,2013-09-15 21:50:00,
2013-09-15 17:51:00,64.2,50.0,30.09,SW,219,0.0,0.0,60,0.00,CLR,,0.00,WeatherDisplay:10.37,2013-09-15 21:51:00,
2013-09-15 17:52:00,64.2,50.0,30.09,SW,219,0.0,0.0,60,0.00,CLR,,0.00,WeatherDisplay:10.37,2013-09-15 21:52:00,
2013-09-15 17:55:00,64.2,50.0,30.08,SW,219,0.0,0.0,60,0.00,CLR,,0.00,WeatherDisplay:10.37,2013-09-15 21:55:00,
2013-09-15 17:56:00,64.0,49.8,30.08,SW,219,0.0,0.0,60,0.00,CLR,,0.00,WeatherDisplay:10.37,2013-09-15 21:56:00,
2013-09-15 17:57:00,64.0,49.8,30.08,SW,219,0.0,0.0,60,0.00,CLR,,0.00,WeatherDisplay:10.37,2013-09-15 21:57:00,
2013-09-15 17:58:00,64.0,49.8,30.08,SW,219,0.0,0.0,60,0.00,CLR,,0.00,WeatherDisplay:10.37,2013-09-15 21:58:00,
2013-09-15 18:01:00,64.0,50.3,30.08,SW,219,0.0,0.0,61,0.00,CLR,,0.00,WeatherDisplay:10.37,2013-09-15 22:01:00,
2013-09-15 18:02:00,64.0,50.3,30.08,SW,219,0.0,0.0,61,0.00,CLR,,0.00,WeatherDisplay:10.37,2013-09-15 22:02:00,
2013-09-15 18:03:00,63.9,50.2,30.08,SW,219,0.0,0.0,61,0.00,CLR,,0.00,WeatherDisplay:10.37,2013-09-15 22:03:00,
2013-09-15 18:06:00,63.9,50.6,30.08,SW,219,0.0,0.0,62,0.00,CLR,,0.00,WeatherDisplay:10.37,2013-09-15 22:06:00,
2013-09-15 18:07:00,63.9,50.6,30.08,SW,219,0.0,0.0,62,0.00,CLR,,0.00,WeatherDisplay:10.37,2013-09-15 22:07:00,
2013-09-15 18:08:00,63.9,50.6,30.08,SW,219,0.0,0.0,62,0.00,CLR,,0.00,WeatherDisplay:10.37,2013-09-15 22:08:00,
2013-09-15 18:09:00,63.9,50.6,30.08,SW,219,0.0,0.0,62,0.00,CLR,,0.00,WeatherDisplay:10.37,2013-09-15 22:09:00,
2013-09-15 18:12:00,63.7,50.9,30.08,SW,219,0.0,0.0,63,0.00,CLR,,0.00,WeatherDisplay:10.37,2013-09-15 22:12:00,
2013-09-15 18:13:00,63.7,51.3,30.08,SW,219,0.0,0.0,64,0.00,CLR,,0.00,WeatherDisplay:10.37,2013-09-15 22:13:00,
2013-09-15 18:14:00,63.7,51.3,30.08,SW,219,0.0,0.0,64,0.00,CLR,,0.00,WeatherDisplay:10.37,2013-09-15 22:14:00,
2013-09-15 18:17:00,63.7,51.7,30.08,SW,219,0.0,0.0,65,0.00,CLR,,0.00,WeatherDisplay:10.37,2013-09-15 22:17:00,
2013-09-15 18:18:00,63.7,52.9,30.08,SW,219,0.0,0.0,68,0.00,CLR,,0.00,WeatherDisplay:10.37,2013-09-15 22:18:00,
2013-09-15 18:19:00,63.7,54.1,30.08,SW,219,0.0,0.0,71,0.00,CLR,,0.00,WeatherDisplay:10.37,2013-09-15 22:19:00,
2013-09-15 18:23:00,63.2,54.0,30.08,SW,219,0.0,0.0,72,0.00,CLR,,0.00,WeatherDisplay:10.37,2013-09-15 22:23:00,
2013-09-15 18:24:00,63.2,53.3,30.09,SW,219,0.0,0.0,70,0.00,CLR,,0.00,WeatherDisplay:10.37,2013-09-15 22:24:00,
2013-09-15 18:28:00,62.9,53.4,30.09,SW,219,0.0,0.0,71,0.00,CLR,,0.00,WeatherDisplay:10.37,2013-09-15 22:28:00,
2013-09-15 18:29:00,62.9,53.0,30.09,SW,219,0.0,0.0,70,0.00,CLR,,0.00,WeatherDisplay:10.37,2013-09-15 22:29:00,
2013-09-15 18:33:00,62.7,53.2,30.08,SW,219,0.0,0.0,71,0.00,CLR,,0.00,WeatherDisplay:10.37,2013-09-15 22:33:00,
2013-09-15 18:34:00,62.7,53.5,30.08,SW,219,0.0,0.0,72,0.00,CLR,,0.00,WeatherDisplay:10.37,2013-09-15 22:34:00,
2013-09-15 18:38:00,62.6,54.6,30.08,SW,219,0.0,0.0,75,0.00,CLR,,0.00,WeatherDisplay:10.37,2013-09-15 22:38:00,
2013-09-15 18:39:00,62.6,54.9,30.08,SW,219,0.0,0.0,76,0.00,CLR,,0.00,WeatherDisplay:10.37,2013-09-15 22:39:00,
2013-09-15 18:40:00,62.4,55.1,30.08,SW,219,0.0,0.0,77,0.00,CLR,,0.00,WeatherDisplay:10.37,2013-09-15 22:40:00,
2013-09-15 18:41:00,62.3,55.4,30.08,SW,219,0.0,0.0,78,0.00,CLR,,0.00,WeatherDisplay:10.37,2013-09-15 22:41:00,
2013-09-15 18:43:00,61.8,55.2,30.08,SW,217,0.0,0.0,79,0.00,CLR,,0.00,WeatherDisplay:10.37,2013-09-15 22:43:00,
2013-09-15 18:44:00,61.8,55.2,30.08,SW,219,0.0,0.0,79,0.00,CLR,,0.00,WeatherDisplay:10.37,2013-09-15 22:44:00,
2013-09-15 18:45:00,61.6,55.0,30.08,SW,219,0.0,0.0,79,0.00,CLR,,0.00,WeatherDisplay:10.37,2013-09-15 22:45:00,
2013-09-15 18:46:00,61.6,55.0,30.08,SW,217,0.0,0.0,79,0.00,CLR,,0.00,WeatherDisplay:10.37,2013-09-15 22:46:00,
2013-09-15 18:48:00,61.3,54.7,30.08,SW,219,0.0,0.0,79,0.00,CLR,,0.00,WeatherDisplay:10.37,2013-09-15 22:48:00,
2013-09-15 18:49:00,61.3,54.7,30.08,SW,219,0.0,0.0,79,0.00,CLR,,0.00,WeatherDisplay:10.37,2013-09-15 22:49:00,
2013-09-15 18:50:00,61.2,54.6,30.08,SW,217,0.0,0.0,79,0.00,CLR,,0.00,WeatherDisplay:10.37,2013-09-15 22:50:00,
2013-09-15 18:51:00,61.2,54.3,30.08,SW,219,0.0,0.0,78,0.00,CLR,,0.00,WeatherDisplay:10.37,2013-09-15 22:51:00,
2013-09-15 18:53:00,61.0,54.1,30.08,SW,219,0.0,0.0,78,0.00,CLR,,0.00,WeatherDisplay:10.37,2013-09-15 22:53:00,
2013-09-15 18:54:00,61.0,54.1,30.08,SW,217,0.0,0.0,78,0.00,CLR,,0.00,WeatherDisplay:10.37,2013-09-15 22:54:00,
2013-09-15 18:55:00,61.0,54.1,30.08,SW,219,0.0,0.0,78,0.00,CLR,,0.00,WeatherDisplay:10.37,2013-09-15 22:55:00,
2013-09-15 18:57:00,61.0,54.1,30.09,SW,219,0.0,0.0,78,0.00,CLR,,0.00,WeatherDisplay:10.37,2013-09-15 22:57:00,
2013-09-15 18:58:00,61.0,54.1,30.09,SW,219,0.0,0.0,78,0.00,CLR,,0.00,WeatherDisplay:10.37,2013-09-15 22:58:00,
2013-09-15 18:59:00,61.0,54.1,30.09,SW,219,0.0,0.0,78,0.00,CLR,,0.00,WeatherDisplay:10.37,2013-09-15 22:59:00,
2013-09-15 19:00:00,61.0,54.1,30.09,SW,217,0.0,0.0,78,0.00,CLR,,0.00,WeatherDisplay:10.37,2013-09-15 23:00:00,
2013-09-15 19:01:00,61.0,54.1,30.09,SW,217,0.0,0.0,78,0.00,CLR,,0.00,WeatherDisplay:10.37,2013-09-15 23:01:00,
2013-09-15 19:02:00,61.0,54.4,30.09,SW,217,0.0,0.0,79,0.00,CLR,,0.00,WeatherDisplay:10.37,2013-09-15 23:02:00,
2013-09-15 19:03:00,61.0,54.4,30.08,SW,217,0.0,0.0,79,0.00,CLR,,0.00,WeatherDisplay:10.37,2013-09-15 23:03:00,
2013-09-15 19:04:00,60.9,54.3,30.08,SW,217,0.0,0.0,79,0.00,CLR,,0.00,WeatherDisplay:10.37,2013-09-15 23:04:00,
2013-09-15 19:05:00,60.9,54.3,30.08,SW,217,0.0,0.0,79,0.00,CLR,,0.00,WeatherDisplay:10.37,2013-09-15 23:05:00,
2013-09-15 19:06:00,60.9,54.3,30.07,SW,217,5.0,5.0,79,0.00,CLR,,0.00,WeatherDisplay:10.37,2013-09-15 23:06:00,
2013-09-15 19:07:00,60.9,54.7,30.07,SSW,202,4.6,4.6,80,0.00,CLR,,0.00,WeatherDisplay:10.37,2013-09-15 23:07:00,
2013-09-15 19:09:00,60.7,54.5,30.07,South,186,5.8,5.8,80,0.00,CLR,,0.00,WeatherDisplay:10.37,2013-09-15 23:09:00,
2013-09-15 19:10:00,60.7,54.8,30.07,South,188,3.5,3.5,81,0.00,CLR,,0.00,WeatherDisplay:10.37,2013-09-15 23:10:00,
2013-09-15 19:11:00,60.5,54.6,30.07,South,186,3.5,3.5,81,0.00,CLR,,0.00,WeatherDisplay:10.37,2013-09-15 23:11:00,
2013-09-15 19:12:00,60.5,54.6,30.07,South,186,3.5,3.5,81,0.00,CLR,,0.00,WeatherDisplay:10.37,2013-09-15 23:12:00,
2013-09-15 19:14:00,60.4,54.5,30.07,South,186,2.3,2.3,81,0.00,CLR,,0.00,WeatherDisplay:10.37,2013-09-15 23:14:00,
2013-09-15 19:15:00,60.2,54.7,30.07,South,186,0.0,0.0,82,0.00,CLR,,0.00,WeatherDisplay:10.37,2013-09-15 23:15:00,
2013-09-15 19:16:00,60.2,54.7,30.07,South,186,0.0,0.0,82,0.00,CLR,,0.00,WeatherDisplay:10.37,2013-09-15 23:16:00,
2013-09-15 19:17:00,60.2,54.7,30.07,South,186,0.0,0.0,82,0.00,CLR,,0.00,WeatherDisplay:10.37,2013-09-15 23:17:00,
2013-09-15 19:19:00,60.1,54.6,30.07,South,186,0.0,0.0,82,0.00,CLR,,0.00,WeatherDisplay:10.37,2013-09-15 23:19:00,
2013-09-15 19:20:00,60.1,54.6,30.08,South,186,0.0,0.0,82,0.00,CLR,,0.00,WeatherDisplay:10.37,2013-09-15 23:20:00,
2013-09-15 19:21:00,60.1,54.6,30.08,South,186,0.0,0.0,82,0.00,CLR,,0.00,WeatherDisplay:10.37,2013-09-15 23:21:00,
2013-09-15 19:22:00,60.1,54.6,30.08,South,188,0.0,0.0,82,0.00,CLR,,0.00,WeatherDisplay:10.37,2013-09-15 23:22:00,
2013-09-15 19:23:00,60.1,54.6,30.08,South,186,0.0,0.0,82,0.00,CLR,,0.00,WeatherDisplay:10.37,2013-09-15 23:23:00,
2013-09-15 19:24:00,60.1,54.6,30.08,South,186,0.0,0.0,82,0.00,CLR,,0.00,WeatherDisplay:10.37,2013-09-15 23:24:00,
2013-09-15 19:25:00,59.9,54.4,30.08,South,186,0.0,0.0,82,0.00,CLR,,0.00,WeatherDisplay:10.37,2013-09-15 23:25:00,
2013-09-15 19:26:00,59.9,54.4,30.08,South,186,0.0,0.0,82,0.00,CLR,,0.00,WeatherDisplay:10.37,2013-09-15 23:26:00,
2013-09-15 19:27:00,59.9,54.4,30.08,South,186,0.0,0.0,82,0.00,CLR,,0.00,WeatherDisplay:10.37,2013-09-15 23:27:00,
2013-09-15 19:28:00,59.9,54.4,30.07,South,186,0.0,0.0,82,0.00,CLR,,0.00,WeatherDisplay:10.37,2013-09-15 23:28:00,
2013-09-15 19:29:00,59.9,54.4,30.07,South,186,0.0,0.0,82,0.00,CLR,,0.00,WeatherDisplay:10.37,2013-09-15 23:29:00,
2013-09-15 19:30:00,59.9,54.4,30.07,South,186,0.0,0.0,82,0.00,CLR,,0.00,WeatherDisplay:10.37,2013-09-15 23:30:00,
2013-09-15 19:31:00,59.9,54.4,30.07,South,186,0.0,0.0,82,0.00,CLR,,0.00,WeatherDisplay:10.37,2013-09-15 23:31:00,
2013-09-15 19:32:00,59.9,54.4,30.08,South,186,0.0,0.0,82,0.00,CLR,,0.00,WeatherDisplay:10.37,2013-09-15 23:32:00,
2013-09-15 19:33:00,59.9,54.4,30.08,South,186,0.0,0.0,82,0.00,CLR,,0.00,WeatherDisplay:10.37,2013-09-15 23:33:00,
2013-09-15 19:35:00,59.9,54.1,30.08,South,188,0.0,0.0,81,0.00,CLR,,0.00,WeatherDisplay:10.37,2013-09-15 23:35:00,
2013-09-15 19:36:00,59.9,54.1,30.08,South,186,0.0,0.0,81,0.00,CLR,,0.00,WeatherDisplay:10.37,2013-09-15 23:36:00,
2013-09-15 19:37:00,59.9,54.1,30.08,South,186,0.0,0.0,81,0.00,CLR,,0.00,WeatherDisplay:10.37,2013-09-15 23:37:00,
2013-09-15 19:38:00,59.9,54.4,30.08,South,186,0.0,0.0,82,0.00,CLR,,0.00,WeatherDisplay:10.37,2013-09-15 23:38:00,
2013-09-15 19:40:00,59.9,54.4,30.08,South,186,1.1,0.0,82,0.00,CLR,,0.00,WeatherDisplay:10.37,2013-09-15 23:40:00,
2013-09-15 19:41:00,59.8,54.3,30.08,South,186,0.0,0.0,82,0.00,CLR,,0.00,WeatherDisplay:10.37,2013-09-15 23:41:00,
2013-09-15 19:42:00,59.8,54.3,30.08,South,188,0.0,0.0,82,0.00,CLR,,0.00,WeatherDisplay:10.37,2013-09-15 23:42:00,
2013-09-15 19:43:00,59.8,54.3,30.08,South,186,0.0,0.0,82,0.00,CLR,,0.00,WeatherDisplay:10.37,2013-09-15 23:43:00,
2013-09-15 19:44:00,59.8,54.3,30.08,South,186,0.0,0.0,82,0.00,CLR,,0.00,WeatherDisplay:10.37,2013-09-15 23:44:00,
2013-09-15 19:45:00,59.8,54.3,30.08,South,188,0.0,0.0,82,0.00,CLR,,0.00,WeatherDisplay:10.37,2013-09-15 23:45:00,
2013-09-15 19:47:00,59.8,54.3,30.08,South,186,0.0,0.0,82,0.00,CLR,,0.00,WeatherDisplay:10.37,2013-09-15 23:47:00,
2013-09-15 19:48:00,59.8,54.6,30.08,South,186,0.0,0.0,83,0.00,CLR,,0.00,WeatherDisplay:10.37,2013-09-15 23:48:00,
2013-09-15 19:49:00,59.8,54.6,30.08,South,186,0.0,0.0,83,0.00,CLR,,0.00,WeatherDisplay:10.37,2013-09-15 23:49:00,
2013-09-15 19:50:00,59.6,54.4,30.08,South,186,0.0,0.0,83,0.00,CLR,,0.00,WeatherDisplay:10.37,2013-09-15 23:50:00,
2013-09-15 19:52:00,59.6,54.4,30.08,South,186,0.0,0.0,83,0.00,CLR,,0.00,WeatherDisplay:10.37,2013-09-15 23:52:00,
2013-09-15 19:53:00,59.6,54.4,30.08,South,186,0.0,0.0,83,0.00,CLR,,0.00,WeatherDisplay:10.37,2013-09-15 23:53:00,
2013-09-15 19:54:00,59.6,54.4,30.08,South,186,0.0,0.0,83,0.00,CLR,,0.00,WeatherDisplay:10.37,2013-09-15 23:54:00,
2013-09-15 19:55:00,59.6,54.4,30.08,South,186,0.0,0.0,83,0.00,CLR,,0.00,WeatherDisplay:10.37,2013-09-15 23:55:00,
2013-09-15 19:57:00,59.6,54.8,30.08,South,186,0.0,0.0,84,0.00,CLR,,0.00,WeatherDisplay:10.37,2013-09-15 23:57:00,
2013-09-15 19:58:00,59.5,54.7,30.08,South,186,0.0,0.0,84,0.00,CLR,,0.00,WeatherDisplay:10.37,2013-09-15 23:58:00,
2013-09-15 19:59:00,59.5,54.7,30.08,South,186,0.0,0.0,84,0.00,CLR,,0.00,WeatherDisplay:10.37,2013-09-15 23:59:00,
2013-09-15 20:00:00,59.5,54.7,30.08,South,186,0.0,0.0,84,0.00,CLR,,0.00,WeatherDisplay:10.37,2013-09-16 00:00:00,
2013-09-15 20:02:00,59.3,54.8,30.08,South,186,0.0,0.0,85,0.00,CLR,,0.00,WeatherDisplay:10.37,2013-09-16 00:02:00,
2013-09-15 20:03:00,59.3,54.8,30.08,South,186,0.0,0.0,85,0.00,CLR,,0.00,WeatherDisplay:10.37,2013-09-16 00:03:00,
2013-09-15 20:05:00,59.3,54.8,30.08,South,186,0.0,0.0,85,0.00,CLR,,0.00,WeatherDisplay:10.37,2013-09-16 00:05:00,
2013-09-15 20:06:00,59.2,54.7,30.08,South,186,0.0,0.0,85,0.00,CLR,,0.00,WeatherDisplay:10.37,2013-09-16 00:06:00,
2013-09-15 20:08:00,59.2,54.7,30.08,South,186,0.0,0.0,85,0.00,CLR,,0.00,WeatherDisplay:10.37,2013-09-16 00:08:00,
2013-09-15 20:09:00,59.2,54.7,30.08,South,186,0.0,0.0,85,0.00,CLR,,0.00,WeatherDisplay:10.37,2013-09-16 00:09:00,
2013-09-15 20:10:00,59.2,54.7,30.08,South,188,0.0,0.0,85,0.00,CLR,,0.00,WeatherDisplay:10.37,2013-09-16 00:10:00,
2013-09-15 20:11:00,59.2,55.0,30.08,South,188,0.0,0.0,86,0.00,CLR,,0.00,WeatherDisplay:10.37,2013-09-16 00:11:00,
2013-09-15 20:12:00,59.2,55.0,30.08,South,186,0.0,0.0,86,0.00,CLR,,0.00,WeatherDisplay:10.37,2013-09-16 00:12:00,
2013-09-15 20:14:00,59.2,55.0,30.09,South,186,0.0,0.0,86,0.00,CLR,,0.00,WeatherDisplay:10.37,2013-09-16 00:14:00,
2013-09-15 20:15:00,59.2,55.0,30.09,South,186,0.0,0.0,86,0.00,CLR,,0.00,WeatherDisplay:10.37,2013-09-16 00:15:00,
2013-09-15 20:17:00,59.2,55.0,30.09,South,186,0.0,0.0,86,0.00,CLR,,0.00,WeatherDisplay:10.37,2013-09-16 00:17:00,
2013-09-15 20:19:00,59.0,55.1,30.09,South,186,0.0,0.0,87,0.00,CLR,,0.00,WeatherDisplay:10.37,2013-09-16 00:19:00,
2013-09-15 20:20:00,59.0,55.1,30.09,South,186,0.0,0.0,87,0.00,CLR,,0.00,WeatherDisplay:10.37,2013-09-16 00:20:00,
2013-09-15 20:21:00,59.0,55.1,30.09,South,186,0.0,0.0,87,0.00,CLR,,0.00,WeatherDisplay:10.37,2013-09-16 00:21:00,
2013-09-15 20:22:00,58.9,55.0,30.09,South,186,0.0,0.0,87,0.00,CLR,,0.00,WeatherDisplay:10.37,2013-09-16 00:22:00,
2013-09-15 20:24:00,58.9,55.0,30.09,South,186,0.0,0.0,87,0.00,CLR,,0.00,WeatherDisplay:10.37,2013-09-16 00:24:00,
2013-09-15 20:25:00,58.9,55.0,30.09,South,186,0.0,0.0,87,0.00,CLR,,0.00,WeatherDisplay:10.37,2013-09-16 00:25:00,
2013-09-15 20:26:00,58.9,55.0,30.09,South,186,0.0,0.0,87,0.00,CLR,,0.00,WeatherDisplay:10.37,2013-09-16 00:26:00,
2013-09-15 20:27:00,58.9,55.0,30.09,South,186,0.0,0.0,87,0.00,CLR,,0.00,WeatherDisplay:10.37,2013-09-16 00:27:00,
2013-09-15 20:28:00,58.7,54.8,30.10,South,186,0.0,0.0,87,0.00,CLR,,0.00,WeatherDisplay:10.37,2013-09-16 00:28:00,
2013-09-15 20:30:00,58.7,55.2,30.10,South,186,0.0,0.0,88,0.00,CLR,,0.00,WeatherDisplay:10.37,2013-09-16 00:30:00,
2013-09-15 20:31:00,58.7,55.2,30.10,South,186,0.0,0.0,88,0.00,CLR,,0.00,WeatherDisplay:10.37,2013-09-16 00:31:00,
2013-09-15 20:32:00,58.7,55.2,30.10,South,186,0.0,0.0,88,0.00,CLR,,0.00,WeatherDisplay:10.37,2013-09-16 00:32:00,
2013-09-15 20:33:00,58.7,55.2,30.10,South,186,0.0,0.0,88,0.00,CLR,,0.00,WeatherDisplay:10.37,2013-09-16 00:33:00,
2013-09-15 20:35:00,58.7,55.5,30.10,South,186,0.0,0.0,89,0.00,CLR,,0.00,WeatherDisplay:10.37,2013-09-16 00:35:00,
2013-09-15 20:36:00,58.7,55.5,30.10,South,186,0.0,0.0,89,0.00,CLR,,0.00,WeatherDisplay:10.37,2013-09-16 00:36:00,
2013-09-15 20:37:00,58.6,55.4,30.10,South,188,0.0,0.0,89,0.00,CLR,,0.00,WeatherDisplay:10.37,2013-09-16 00:37:00,
2013-09-15 20:38:00,58.6,55.4,30.11,South,186,0.0,0.0,89,0.00,CLR,,0.00,WeatherDisplay:10.37,2013-09-16 00:38:00,
2013-09-15 20:40:00,58.6,55.4,30.11,South,186,0.0,0.0,89,0.00,CLR,,0.00,WeatherDisplay:10.37,2013-09-16 00:40:00,
2013-09-15 20:41:00,58.6,55.4,30.11,South,186,0.0,0.0,89,0.00,CLR,,0.00,WeatherDisplay:10.37,2013-09-16 00:41:00,
2013-09-15 20:42:00,58.6,55.4,30.11,South,186,0.0,0.0,89,0.00,CLR,,0.00,WeatherDisplay:10.37,2013-09-16 00:42:00,
2013-09-15 20:43:00,58.4,55.2,30.11,South,186,0.0,0.0,89,0.00,CLR,,0.00,WeatherDisplay:10.37,2013-09-16 00:43:00,
2013-09-15 20:46:00,58.6,55.4,30.11,South,186,0.0,0.0,89,0.00,CLR,,0.00,WeatherDisplay:10.37,2013-09-16 00:46:00,
2013-09-15 20:47:00,58.4,55.2,30.11,South,186,0.0,0.0,89,0.00,CLR,,0.00,WeatherDisplay:10.37,2013-09-16 00:47:00,
2013-09-15 20:48:00,58.4,55.2,30.11,South,186,0.0,0.0,89,0.00,CLR,,0.00,WeatherDisplay:10.37,2013-09-16 00:48:00,
2013-09-15 20:49:00,58.4,55.2,30.11,South,186,0.0,0.0,89,0.00,CLR,,0.00,WeatherDisplay:10.37,2013-09-16 00:49:00,
2013-09-15 20:51:00,58.4,55.2,30.11,South,186,0.0,0.0,89,0.00,CLR,,0.00,WeatherDisplay:10.37,2013-09-16 00:51:00,
2013-09-15 20:52:00,58.4,55.2,30.11,South,188,0.0,0.0,89,0.00,CLR,,0.00,WeatherDisplay:10.37,2013-09-16 00:52:00,
2013-09-15 20:53:00,58.6,55.7,30.11,South,188,0.0,0.0,90,0.00,CLR,,0.00,WeatherDisplay:10.37,2013-09-16 00:53:00,
2013-09-15 20:54:00,58.6,55.7,30.11,South,186,0.0,0.0,90,0.00,CLR,,0.00,WeatherDisplay:10.37,2013-09-16 00:54:00,
2013-09-15 20:56:00,58.6,56.0,30.11,South,186,0.0,0.0,91,0.00,CLR,,0.00,WeatherDisplay:10.37,2013-09-16 00:56:00,
2013-09-15 20:57:00,58.6,56.0,30.11,South,186,0.0,0.0,91,0.00,CLR,,0.00,WeatherDisplay:10.37,2013-09-16 00:57:00,
2013-09-15 20:58:00,58.4,55.8,30.11,South,186,0.0,0.0,91,0.00,CLR,,0.00,WeatherDisplay:10.37,2013-09-16 00:58:00,
2013-09-15 20:59:00,58.4,55.8,30.11,South,188,0.0,0.0,91,0.00,CLR,,0.00,WeatherDisplay:10.37,2013-09-16 00:59:00,
2013-09-15 21:01:00,58.4,56.1,30.11,South,188,0.0,0.0,92,0.00,CLR,,0.00,WeatherDisplay:10.37,2013-09-16 01:01:00,
2013-09-15 21:02:00,58.4,55.8,30.11,South,186,0.0,0.0,91,0.00,CLR,,0.00,WeatherDisplay:10.37,2013-09-16 01:02:00,
2013-09-15 21:03:00,58.4,55.8,30.11,South,186,0.0,0.0,91,0.00,CLR,,0.00,WeatherDisplay:10.37,2013-09-16 01:03:00,
2013-09-15 21:04:00,58.4,55.8,30.11,South,186,0.0,0.0,91,0.00,CLR,,0.00,WeatherDisplay:10.37,2013-09-16 01:04:00,
2013-09-15 21:05:00,58.3,56.0,30.11,South,186,0.0,0.0,92,0.00,CLR,,0.00,WeatherDisplay:10.37,2013-09-16 01:05:00,
2013-09-15 21:06:00,58.3,56.0,30.10,South,188,0.0,0.0,92,0.00,CLR,,0.00,WeatherDisplay:10.37,2013-09-16 01:06:00,
2013-09-15 21:07:00,58.3,56.0,30.10,South,186,0.0,0.0,92,0.00,CLR,,0.00,WeatherDisplay:10.37,2013-09-16 01:07:00,
2013-09-15 21:08:00,58.3,56.0,30.10,South,188,0.0,0.0,92,0.00,CLR,,0.00,WeatherDisplay:10.37,2013-09-16 01:08:00,
2013-09-15 21:09:00,58.3,56.0,30.10,South,186,0.0,0.0,92,0.00,CLR,,0.00,WeatherDisplay:10.37,2013-09-16 01:09:00,
2013-09-15 21:11:00,58.1,55.8,30.11,South,186,0.0,0.0,92,0.00,CLR,,0.00,WeatherDisplay:10.37,2013-09-16 01:11:00,
2013-09-15 21:12:00,58.1,55.8,30.11,South,188,0.0,0.0,92,0.00,CLR,,0.00,WeatherDisplay:10.37,2013-09-16 01:12:00,
2013-09-15 21:13:00,58.1,55.8,30.11,South,186,0.0,0.0,92,0.00,CLR,,0.00,WeatherDisplay:10.37,2013-09-16 01:13:00,
2013-09-15 21:14:00,58.1,55.8,30.11,South,186,0.0,0.0,92,0.00,CLR,,0.00,WeatherDisplay:10.37,2013-09-16 01:14:00,
2013-09-15 21:16:00,58.1,55.8,30.11,South,186,0.0,0.0,92,0.00,CLR,,0.00,WeatherDisplay:10.37,2013-09-16 01:16:00,
2013-09-15 21:18:00,58.0,55.7,30.10,South,186,2.0,2.0,92,0.00,CLR,,0.00,WeatherDisplay:10.37,2013-09-16 01:18:00,
2013-09-15 21:20:00,58.0,55.7,30.10,South,186,3.5,3.5,92,0.00,CLR,,0.00,WeatherDisplay:10.37,2013-09-16 01:20:00,
2013-09-15 21:21:00,58.0,55.7,30.11,South,186,3.5,3.5,92,0.00,CLR,,0.00,WeatherDisplay:10.37,2013-09-16 01:21:00,
2013-09-15 21:22:00,58.0,55.7,30.11,South,186,3.5,3.5,92,0.00,CLR,,0.00,WeatherDisplay:10.37,2013-09-16 01:22:00,
2013-09-15 21:23:00,57.8,55.8,30.11,South,186,3.5,3.5,93,0.00,CLR,,0.00,WeatherDisplay:10.37,2013-09-16 01:23:00,
2013-09-15 21:24:00,57.8,55.8,30.11,South,188,3.5,3.5,93,0.00,CLR,,0.00,WeatherDisplay:10.37,2013-09-16 01:24:00,
2013-09-15 21:25:00,57.8,55.8,30.11,South,186,2.3,2.3,93,0.00,CLR,,0.00,WeatherDisplay:10.37,2013-09-16 01:25:00,
2013-09-15 21:26:00,57.8,55.8,30.11,South,186,2.3,2.3,93,0.00,CLR,,0.00,WeatherDisplay:10.37,2013-09-16 01:26:00,
2013-09-15 21:27:00,57.8,55.8,30.10,South,186,2.3,2.3,93,0.00,CLR,,0.00,WeatherDisplay:10.37,2013-09-16 01:27:00,
2013-09-15 21:28:00,57.8,55.8,30.11,South,186,3.5,3.5,93,0.00,CLR,,0.00,WeatherDisplay:10.37,2013-09-16 01:28:00,
2013-09-15 21:29:00,57.8,55.8,30.11,South,186,3.5,3.5,93,0.00,CLR,,0.00,WeatherDisplay:10.37,2013-09-16 01:29:00,
2013-09-15 21:30:00,57.8,55.8,30.11,South,186,3.5,3.5,93,0.00,CLR,,0.00,WeatherDisplay:10.37,2013-09-16 01:30:00,
2013-09-15 21:31:00,57.8,55.8,30.11,South,186,3.5,3.5,93,0.00,CLR,,0.00,WeatherDisplay:10.37,2013-09-16 01:31:00,
2013-09-15 21:32:00,57.6,55.6,30.11,South,186,2.3,2.3,93,0.00,CLR,,0.00,WeatherDisplay:10.37,2013-09-16 01:32:00,
2013-09-15 21:34:00,57.6,55.6,30.10,South,188,3.5,3.5,93,0.00,CLR,,0.00,WeatherDisplay:10.37,2013-09-16 01:34:00,
2013-09-15 21:35:00,57.6,55.6,30.10,South,186,2.3,2.3,93,0.00,CLR,,0.00,WeatherDisplay:10.37,2013-09-16 01:35:00,
2013-09-15 21:36:00,57.6,55.6,30.10,South,186,3.0,3.0,93,0.00,CLR,,0.00,WeatherDisplay:10.37,2013-09-16 01:36:00,
2013-09-15 21:37:00,57.8,55.8,30.10,South,186,3.5,3.5,93,0.00,CLR,,0.00,WeatherDisplay:10.37,2013-09-16 01:37:00,
2013-09-15 21:39:00,57.8,55.8,30.10,South,186,2.3,2.3,93,0.00,CLR,,0.00,WeatherDisplay:10.37,2013-09-16 01:39:00,
2013-09-15 21:41:00,57.6,55.6,30.10,South,186,2.3,2.3,93,0.00,CLR,,0.00,WeatherDisplay:10.37,2013-09-16 01:41:00,
2013-09-15 21:42:00,57.6,55.9,30.10,South,188,2.3,2.3,94,0.00,CLR,,0.00,WeatherDisplay:10.37,2013-09-16 01:42:00,
2013-09-15 21:45:00,57.6,55.9,30.10,South,186,3.5,3.5,94,0.01,RA,,0.01,WeatherDisplay:10.37,2013-09-16 01:45:00,
2013-09-15 21:46:00,57.5,55.8,30.10,South,186,3.5,3.5,94,0.01,RA,,0.01,WeatherDisplay:10.37,2013-09-16 01:46:00,
2013-09-15 21:47:00,57.5,55.8,30.10,South,186,3.5,3.5,94,0.01,RA,,0.01,WeatherDisplay:10.37,2013-09-16 01:47:00,
2013-09-15 21:48:00,57.5,55.8,30.10,South,188,2.3,2.3,94,0.01,RA,,0.01,WeatherDisplay:10.37,2013-09-16 01:48:00,
2013-09-15 21:50:00,57.5,55.8,30.10,South,186,3.5,3.5,94,0.01,RA,,0.01,WeatherDisplay:10.37,2013-09-16 01:50:00,
2013-09-15 21:51:00,57.5,55.8,30.10,South,186,3.5,3.5,94,0.01,RA,,0.01,WeatherDisplay:10.37,2013-09-16 01:51:00,
2013-09-15 21:52:00,57.3,55.9,30.10,South,186,2.3,2.3,95,0.01,RA,,0.01,WeatherDisplay:10.37,2013-09-16 01:52:00,
2013-09-15 21:53:00,57.3,55.9,30.10,South,186,3.5,3.5,95,0.01,RA,,0.01,WeatherDisplay:10.37,2013-09-16 01:53:00,
2013-09-15 21:54:00,57.3,55.9,30.10,South,186,3.5,3.5,95,0.01,RA,,0.01,WeatherDisplay:10.37,2013-09-16 01:54:00,
2013-09-15 21:55:00,57.2,55.8,30.10,South,186,3.5,3.5,95,0.01,,,0.01,WeatherDisplay:10.37,2013-09-16 01:55:00,
2013-09-15 21:56:00,57.2,55.8,30.10,South,186,2.3,2.3,95,0.01,,,0.01,WeatherDisplay:10.37,2013-09-16 01:56:00,
2013-09-15 21:58:00,57.2,55.8,30.10,South,186,2.3,2.3,95,0.01,CLR,,0.01,WeatherDisplay:10.37,2013-09-16 01:58:00,
2013-09-15 21:59:00,57.2,55.8,30.10,South,186,2.3,2.3,95,0.01,CLR,,0.01,WeatherDisplay:10.37,2013-09-16 01:59:00,
2013-09-15 22:00:00,57.0,55.6,30.10,South,186,2.3,2.3,95,0.02,RA,,0.02,WeatherDisplay:10.37,2013-09-16 02:00:00,
2013-09-15 22:01:00,57.0,55.6,30.10,South,186,2.3,2.3,95,0.02,RA,,0.02,WeatherDisplay:10.37,2013-09-16 02:01:00,
2013-09-15 22:02:00,57.0,55.6,30.10,South,186,0.0,0.0,95,0.02,RA,,0.02,WeatherDisplay:10.37,2013-09-16 02:02:00,
2013-09-15 22:03:00,57.0,55.9,30.10,South,186,2.3,2.3,96,0.02,RA,,0.02,WeatherDisplay:10.37,2013-09-16 02:03:00,
2013-09-15 22:04:00,57.0,55.9,30.10,South,186,0.0,0.0,96,0.02,RA,,0.02,WeatherDisplay:10.37,2013-09-16 02:04:00,
2013-09-15 22:05:00,57.0,55.9,30.10,South,186,0.0,0.0,96,0.02,RA,,0.02,WeatherDisplay:10.37,2013-09-16 02:05:00,
2013-09-15 22:06:00,57.0,55.9,30.09,South,186,0.0,0.0,96,0.02,RA,,0.02,WeatherDisplay:10.37,2013-09-16 02:06:00,
2013-09-15 22:07:00,57.0,55.9,30.09,South,186,0.0,0.0,96,0.02,RA,,0.02,WeatherDisplay:10.37,2013-09-16 02:07:00,
2013-09-15 22:08:00,57.0,55.9,30.09,South,186,0.0,0.0,96,0.02,RA,,0.02,WeatherDisplay:10.37,2013-09-16 02:08:00,
2013-09-15 22:09:00,56.9,55.8,30.09,South,186,0.0,0.0,96,0.02,RA,,0.02,WeatherDisplay:10.37,2013-09-16 02:09:00,
2013-09-15 22:10:00,56.9,55.8,30.09,South,186,0.0,0.0,96,0.02,,,0.02,WeatherDisplay:10.37,2013-09-16 02:10:00,
2013-09-15 22:11:00,56.9,55.8,30.09,South,186,0.0,0.0,96,0.02,,,0.02,WeatherDisplay:10.37,2013-09-16 02:11:00,
2013-09-15 22:12:00,56.9,55.8,30.09,South,186,0.0,0.0,96,0.02,CLR,,0.02,WeatherDisplay:10.37,2013-09-16 02:12:00,
2013-09-15 22:13:00,56.9,55.8,30.09,South,186,0.0,0.0,96,0.02,CLR,,0.02,WeatherDisplay:10.37,2013-09-16 02:13:00,
2013-09-15 22:14:00,56.7,55.6,30.09,South,186,0.0,0.0,96,0.02,CLR,,0.02,WeatherDisplay:10.37,2013-09-16 02:14:00,
2013-09-15 22:16:00,56.7,55.6,30.10,South,186,0.0,0.0,96,0.03,RA,,0.03,WeatherDisplay:10.37,2013-09-16 02:16:00,
2013-09-15 22:18:00,56.7,55.6,30.10,South,186,0.0,0.0,96,0.03,RA,,0.03,WeatherDisplay:10.37,2013-09-16 02:18:00,
2013-09-15 22:19:00,56.7,55.9,30.10,South,186,0.0,0.0,97,0.03,RA,,0.03,WeatherDisplay:10.37,2013-09-16 02:19:00,
2013-09-15 22:21:00,56.7,55.9,30.10,South,186,0.0,0.0,97,0.04,RA,,0.04,WeatherDisplay:10.37,2013-09-16 02:21:00,
2013-09-15 22:22:00,56.7,55.9,30.10,South,186,0.0,0.0,97,0.04,RA,,0.04,WeatherDisplay:10.37,2013-09-16 02:22:00,
2013-09-15 22:23:00,56.7,55.9,30.10,South,186,0.0,0.0,97,0.04,RA,,0.04,WeatherDisplay:10.37,2013-09-16 02:23:00,
2013-09-15 22:25:00,56.7,55.9,30.10,South,186,0.0,0.0,97,0.04,RA,,0.04,WeatherDisplay:10.37,2013-09-16 02:25:00,
2013-09-15 22:26:00,56.7,55.9,30.10,South,188,0.0,0.0,97,0.04,RA,,0.04,WeatherDisplay:10.37,2013-09-16 02:26:00,
2013-09-15 22:27:00,56.9,56.1,30.10,South,188,0.0,0.0,97,0.04,RA,,0.04,WeatherDisplay:10.37,2013-09-16 02:27:00,
2013-09-15 22:28:00,56.9,56.1,30.10,South,188,0.0,0.0,97,0.04,RA,,0.05,WeatherDisplay:10.37,2013-09-16 02:28:00,
2013-09-15 22:29:00,56.9,56.3,30.10,South,188,0.0,0.0,98,0.05,RA,,0.05,WeatherDisplay:10.37,2013-09-16 02:29:00,
2013-09-15 22:30:00,56.9,56.1,30.10,South,188,0.0,0.0,97,0.05,RA,,0.05,WeatherDisplay:10.37,2013-09-16 02:30:00,
2013-09-15 22:31:00,56.9,56.3,30.10,South,188,1.1,0.0,98,0.05,RA,,0.05,WeatherDisplay:10.37,2013-09-16 02:31:00,
2013-09-15 22:32:00,57.0,56.4,30.10,South,189,0.0,0.0,98,0.05,RA,,0.05,WeatherDisplay:10.37,2013-09-16 02:32:00,
2013-09-15 22:33:00,57.0,56.4,30.09,South,189,0.0,0.0,98,0.05,RA,,0.05,WeatherDisplay:10.37,2013-09-16 02:33:00,
2013-09-15 22:34:00,57.0,56.4,30.09,South,189,0.0,0.0,98,0.05,RA,,0.05,WeatherDisplay:10.37,2013-09-16 02:34:00,
2013-09-15 22:35:00,57.0,56.4,30.09,SSW,192,0.0,0.0,98,0.06,RA,,0.06,WeatherDisplay:10.37,2013-09-16 02:35:00,
2013-09-15 22:36:00,57.0,56.4,30.09,SSW,196,0.0,0.0,98,0.06,RA,,0.06,WeatherDisplay:10.37,2013-09-16 02:36:00,
2013-09-15 22:37:00,57.0,56.4,30.09,SSW,193,0.0,0.0,98,0.06,RA,,0.06,WeatherDisplay:10.37,2013-09-16 02:37:00,
2013-09-15 22:38:00,57.0,56.4,30.09,SSW,193,0.0,0.0,98,0.06,RA,,0.06,WeatherDisplay:10.37,2013-09-16 02:38:00,
2013-09-15 22:39:00,57.0,56.4,30.09,SSW,193,0.0,0.0,98,0.06,RA,,0.06,WeatherDisplay:10.37,2013-09-16 02:39:00,
2013-09-15 22:40:00,57.2,56.6,30.09,SSW,193,0.0,0.0,98,0.06,RA,,0.06,WeatherDisplay:10.37,2013-09-16 02:40:00,
2013-09-15 22:41:00,57.2,56.6,30.09,SSW,193,0.0,0.0,98,0.06,RA,,0.06,WeatherDisplay:10.37,2013-09-16 02:41:00,
2013-09-15 22:42:00,57.2,56.6,30.09,SSW,193,0.0,0.0,98,0.06,RA,,0.06,WeatherDisplay:10.37,2013-09-16 02:42:00,
2013-09-15 22:44:00,57.2,56.6,30.09,SSW,193,0.0,0.0,98,0.06,RA,,0.06,WeatherDisplay:10.37,2013-09-16 02:44:00,
2013-09-15 22:45:00,57.2,56.6,30.09,NNW,328,4.6,4.6,98,0.05,,,0.06,WeatherDisplay:10.37,2013-09-16 02:45:00,
2013-09-15 22:46:00,57.3,56.7,30.09,NNW,328,2.3,2.3,98,0.05,,,0.06,WeatherDisplay:10.37,2013-09-16 02:46:00,
2013-09-15 22:48:00,57.3,56.7,30.09,NNW,328,1.1,0.0,98,0.05,CLR,,0.06,WeatherDisplay:10.37,2013-09-16 02:48:00,
2013-09-15 22:49:00,57.3,56.7,30.09,NNW,328,0.0,0.0,98,0.05,CLR,,0.06,WeatherDisplay:10.37,2013-09-16 02:49:00,
2013-09-15 22:51:00,57.5,56.9,30.09,NNW,328,0.0,0.0,98,0.05,CLR,,0.06,WeatherDisplay:10.37,2013-09-16 02:51:00,
2013-09-15 22:53:00,57.5,57.2,30.09,NNW,328,0.0,0.0,99,0.05,CLR,,0.06,WeatherDisplay:10.37,2013-09-16 02:53:00,
2013-09-15 22:54:00,57.5,57.2,30.09,NNW,328,0.0,0.0,99,0.05,CLR,,0.06,WeatherDisplay:10.37,2013-09-16 02:54:00,
2013-09-15 22:55:00,57.5,57.2,30.09,NNW,328,0.0,0.0,99,0.06,RA,,0.07,WeatherDisplay:10.37,2013-09-16 02:55:00,
2013-09-15 22:56:00,57.5,57.2,30.09,NNW,328,0.0,0.0,99,0.06,RA,,0.07,WeatherDisplay:10.37,2013-09-16 02:56:00,
2013-09-15 22:57:00,57.5,57.2,30.09,NNW,328,0.0,0.0,99,0.06,RA,,0.07,WeatherDisplay:10.37,2013-09-16 02:57:00,
2013-09-15 22:59:00,57.5,57.2,30.09,NNW,328,0.0,0.0,99,0.06,RA,,0.07,WeatherDisplay:10.37,2013-09-16 02:59:00,
2013-09-15 23:00:00,57.5,57.2,30.09,NNW,328,0.0,0.0,99,0.05,RA,,0.07,WeatherDisplay:10.37,2013-09-16 03:00:00,
2013-09-15 23:01:00,57.5,57.2,30.09,NNW,328,0.0,0.0,99,0.05,RA,,0.07,WeatherDisplay:10.37,2013-09-16 03:01:00,
2013-09-15 23:02:00,57.5,57.2,30.09,NNW,328,0.0,0.0,99,0.05,RA,,0.07,WeatherDisplay:10.37,2013-09-16 03:02:00,
2013-09-15 23:04:00,57.5,57.2,30.09,NNW,328,0.0,0.0,99,0.05,RA,,0.07,WeatherDisplay:10.37,2013-09-16 03:04:00,
2013-09-15 23:05:00,57.5,57.2,30.09,NNW,328,0.0,0.0,99,0.05,,,0.08,WeatherDisplay:10.37,2013-09-16 03:05:00,
2013-09-15 23:06:00,57.5,57.2,30.09,NNW,328,0.0,0.0,99,0.06,RA,,0.09,WeatherDisplay:10.37,2013-09-16 03:06:00,
2013-09-15 23:07:00,57.5,57.2,30.09,NNW,328,0.0,0.0,99,0.07,RA,,0.09,WeatherDisplay:10.37,2013-09-16 03:07:00,
2013-09-15 23:09:00,57.6,57.3,30.09,NNW,328,0.0,0.0,99,0.07,RA,,0.10,WeatherDisplay:10.37,2013-09-16 03:09:00,
2013-09-15 23:11:00,57.6,57.3,30.09,NNW,328,0.0,0.0,99,0.08,RA,,0.10,WeatherDisplay:10.37,2013-09-16 03:11:00,
2013-09-15 23:12:00,57.6,57.3,30.09,NNW,328,0.0,0.0,99,0.08,RA,,0.10,WeatherDisplay:10.37,2013-09-16 03:12:00,
2013-09-15 23:14:00,57.6,57.3,30.09,NNW,328,0.0,0.0,99,0.08,RA,,0.10,WeatherDisplay:10.37,2013-09-16 03:14:00,
2013-09-15 23:16:00,57.6,57.3,30.09,NNW,328,0.0,0.0,99,0.07,RA,,0.10,WeatherDisplay:10.37,2013-09-16 03:16:00,
2013-09-15 23:17:00,57.6,57.3,30.09,NNW,329,0.0,0.0,99,0.07,RA,,0.10,WeatherDisplay:10.37,2013-09-16 03:17:00,
2013-09-15 23:20:00,57.6,57.3,30.09,NNW,329,0.0,0.0,99,0.07,RA,,0.10,WeatherDisplay:10.37,2013-09-16 03:20:00,
2013-09-15 23:21:00,57.5,57.2,30.09,NNW,329,3.5,3.5,99,0.06,,,0.10,WeatherDisplay:10.37,2013-09-16 03:21:00,
2013-09-15 23:22:00,57.5,57.2,30.09,NNW,329,1.1,1.1,99,0.06,CLR,,0.10,WeatherDisplay:10.37,2013-09-16 03:22:00,
2013-09-15 23:25:00,57.5,57.2,30.10,NNW,329,0.0,0.0,99,0.06,CLR,,0.10,WeatherDisplay:10.37,2013-09-16 03:25:00,
2013-09-15 23:26:00,57.5,57.2,30.10,NNW,329,0.0,0.0,99,0.06,CLR,,0.10,WeatherDisplay:10.37,2013-09-16 03:26:00,
2013-09-15 23:27:00,57.5,57.2,30.10,NNW,329,0.0,0.0,99,0.06,CLR,,0.10,WeatherDisplay:10.37,2013-09-16 03:27:00,
2013-09-15 23:28:00,57.3,57.0,30.10,NNW,329,0.0,0.0,99,0.06,CLR,,0.10,WeatherDisplay:10.37,2013-09-16 03:28:00,
2013-09-15 23:30:00,57.3,57.0,30.10,NNW,329,0.0,0.0,99,0.05,CLR,,0.10,WeatherDisplay:10.37,2013-09-16 03:30:00,
2013-09-15 23:31:00,57.3,57.0,30.10,NNW,329,0.0,0.0,99,0.05,CLR,,0.10,WeatherDisplay:10.37,2013-09-16 03:31:00,
2013-09-15 23:32:00,57.3,57.0,30.10,NNW,329,0.0,0.0,99,0.05,CLR,,0.10,WeatherDisplay:10.37,2013-09-16 03:32:00,
2013-09-15 23:33:00,57.3,57.0,30.10,NNW,329,0.0,0.0,99,0.05,CLR,,0.10,WeatherDisplay:10.37,2013-09-16 03:33:00,
2013-09-15 23:35:00,57.3,57.0,30.10,NNW,329,0.0,0.0,99,0.04,CLR,,0.10,WeatherDisplay:10.37,2013-09-16 03:35:00,
2013-09-15 23:36:00,57.3,57.0,30.10,NNW,329,0.0,0.0,99,0.04,CLR,,0.10,WeatherDisplay:10.37,2013-09-16 03:36:00,
2013-09-15 23:37:00,57.2,56.9,30.10,NNW,329,0.0,0.0,99,0.04,CLR,,0.10,WeatherDisplay:10.37,2013-09-16 03:37:00,
2013-09-15 23:38:00,57.2,56.9,30.10,NNW,329,0.0,0.0,99,0.04,CLR,,0.10,WeatherDisplay:10.37,2013-09-16 03:38:00,
2013-09-15 23:40:00,57.2,56.9,30.10,NNW,329,0.0,0.0,99,0.04,CLR,,0.10,WeatherDisplay:10.37,2013-09-16 03:40:00,
2013-09-15 23:41:00,57.2,56.9,30.09,NNW,329,0.0,0.0,99,0.04,CLR,,0.10,WeatherDisplay:10.37,2013-09-16 03:41:00,
2013-09-15 23:42:00,57.2,56.9,30.09,NNW,329,1.1,0.0,99,0.04,CLR,,0.10,WeatherDisplay:10.37,2013-09-16 03:42:00,
2013-09-15 23:43:00,57.2,56.9,30.09,NNW,329,0.0,0.0,99,0.04,CLR,,0.10,WeatherDisplay:10.37,2013-09-16 03:43:00,
2013-09-15 23:44:00,57.2,56.9,30.09,NNW,329,0.0,0.0,99,0.04,CLR,,0.10,WeatherDisplay:10.37,2013-09-16 03:44:00,
2013-09-15 23:45:00,57.2,56.9,30.09,NNW,329,0.0,0.0,99,0.04,CLR,,0.10,WeatherDisplay:10.37,2013-09-16 03:45:00,
2013-09-15 23:46:00,57.2,56.9,30.09,NNW,329,0.0,0.0,99,0.04,CLR,,0.10,WeatherDisplay:10.37,2013-09-16 03:46:00,
2013-09-15 23:47:00,57.2,56.9,30.09,NNW,329,0.0,0.0,99,0.04,CLR,,0.10,WeatherDisplay:10.37,2013-09-16 03:47:00,
2013-09-15 23:48:00,57.2,56.9,30.09,NNW,329,0.0,0.0,99,0.04,CLR,,0.10,WeatherDisplay:10.37,2013-09-16 03:48:00,
2013-09-15 23:49:00,57.2,56.9,30.09,NNW,329,1.1,0.0,99,0.04,CLR,,0.10,WeatherDisplay:10.37,2013-09-16 03:49:00,
2013-09-15 23:51:00,57.2,56.9,30.09,NNW,329,0.0,0.0,99,0.04,CLR,,0.10,WeatherDisplay:10.37,2013-09-16 03:51:00,
2013-09-15 23:52:00,57.2,56.9,30.09,NNW,329,0.0,0.0,99,0.04,CLR,,0.10,WeatherDisplay:10.37,2013-09-16 03:52:00,
2013-09-15 23:53:00,57.0,56.7,30.09,NNW,329,0.0,0.0,99,0.04,CLR,,0.10,WeatherDisplay:10.37,2013-09-16 03:53:00,
2013-09-15 23:54:00,57.0,56.7,30.09,NNW,329,0.0,0.0,99,0.04,CLR,,0.10,WeatherDisplay:10.37,2013-09-16 03:54:00,
2013-09-15 23:56:00,57.0,56.7,30.09,NNW,329,0.0,0.0,99,0.03,CLR,,0.10,WeatherDisplay:10.37,2013-09-16 03:56:00,
2013-09-15 23:57:00,57.0,56.7,30.09,NNW,329,0.0,0.0,99,0.03,CLR,,0.10,WeatherDisplay:10.37,2013-09-16 03:57:00,
2013-09-15 23:58:00,57.0,56.7,30.09,NNW,329,0.0,0.0,99,0.03,CLR,,0.10,WeatherDisplay:10.37,2013-09-16 03:58:00,
2013-09-15 23:59:00,57.0,56.7,30.09,NNW,329,0.0,0.0,99,0.03,CLR,,0.10,WeatherDisplay:10.37,2013-09-16 03:59:00,